CW0238 Weather Reports


Display with metric or nautical units.
time (UTC)temp
F
wind
direction
speed
MPH
gust
MPH
rain 1hr
in
rain 24hr
in
rain mn
in
humidity
%
barometer
mb
20220516191611 78 271 2.0 7.0 0.00 0.35 0.35 33 1013.2
20220516191513 78 86 2.0 7.0 0.00 0.35 0.35 36 1013.2
20220516191415 78 307 2.0 9.0 0.00 0.35 0.35 37 1013.2
20220516191317 78 300 2.0 9.0 0.00 0.35 0.35 36 1013.3
20220516191313 78 279 2.0 9.0 0.00 0.35 0.35 36 1013.3
20220516191207 77 302 2.0 9.0 0.00 0.35 0.35 39 1013.3
20220516191106 77 339 2.0 9.0 0.00 0.35 0.35 37 1013.2
20220516191010 77 339 2.0 9.0 0.00 0.35 0.35 40 1013.3
20220516190907 77 73 2.0 9.0 0.00 0.35 0.35 35 1013.3
20220516190806 77 48 2.0 9.0 0.00 0.35 0.35 34 1013.3
20220516190703 76 348 2.0 9.0 0.00 0.35 0.35 35 1013.3
20220516190604 76 38 3.0 9.0 0.00 0.35 0.35 39 1013.3
20220516190503 76 325 3.0 9.0 0.00 0.35 0.35 35 1013.3
20220516190404 77 333 3.0 9.0 0.00 0.35 0.35 38 1013.4
20220516190311 77 327 3.0 9.0 0.00 0.35 0.35 38 1013.4
20220516190301 77 356 3.0 9.0 0.00 0.35 0.35 36 1013.4
20220516190201 78 28 3.0 9.0 0.00 0.35 0.35 38 1013.4
20220516190101 78 78 3.0 11.0 0.00 0.35 0.35 37 1013.4
20220516190001 78 38 3.0 14.0 0.00 0.35 0.35 33 1013.3
20220516185902 78 28 3.0 14.0 0.00 0.35 0.35 32 1013.3
20220516185800 78 331 3.0 14.0 0.00 0.35 0.35 33 1013.4
20220516185701 78 252 3.0 14.0 0.00 0.35 0.35 35 1013.5
20220516185601 78 62 3.0 14.0 0.00 0.35 0.35 37 1013.5
20220516185501 78 101 3.0 14.0 0.00 0.35 0.35 32 1013.4
20220516185403 78 249 3.0 14.0 0.00 0.35 0.35 35 1013.4
20220516185313 78 203 3.0 14.0 0.00 0.35 0.35 35 1013.4
20220516185301 78 221 3.0 14.0 0.00 0.35 0.35 35 1013.4
20220516185200 78 95 3.0 14.0 0.00 0.35 0.35 36 1013.4
20220516185059 78 298 3.0 14.0 0.00 0.35 0.35 38 1013.5
20220516184958 78 331 3.0 7.0 0.00 0.35 0.35 41 1013.4
20220516184857 78 243 3.0 7.0 0.00 0.35 0.35 37 1013.5
20220516184758 78 53 3.0 7.0 0.00 0.35 0.35 37 1013.5
20220516184658 78 312 2.0 7.0 0.00 0.35 0.35 39 1013.5
20220516184558 78 6 2.0 7.0 0.00 0.35 0.35 36 1013.5
20220516184450 78 242 2.0 7.0 0.00 0.35 0.35 37 1013.6
20220516184350 77 235 2.0 7.0 0.00 0.35 0.35 37 1013.6
20220516184311 77 256 2.0 7.0 0.00 0.35 0.35 44 1013.5
20220516184252 77 267 2.0 6.0 0.00 0.35 0.35 44 1013.5
20220516184149 77 339 2.0 6.0 0.00 0.35 0.35 40 1013.6
20220516184051 77 6 2.0 7.0 0.00 0.35 0.35 37 1013.6
20220516183945 77 351 2.0 7.0 0.00 0.35 0.35 35 1013.6
20220516183843 76 253 2.0 7.0 0.00 0.35 0.35 39 1013.6
20220516183745 77 202 2.0 7.0 0.00 0.35 0.35 39 1013.6
20220516183642 77 202 2.0 12.0 0.00 0.35 0.35 42 1013.6
20220516183546 77 202 3.0 12.0 0.00 0.35 0.35 39 1013.6
20220516183439 77 26 3.0 12.0 0.00 0.35 0.35 35 1013.5
20220516183338 77 252 3.0 12.0 0.00 0.35 0.35 34 1013.6
20220516183311 77 352 3.0 12.0 0.00 0.35 0.35 35 1013.6
20220516183239 77 272 3.0 12.0 0.00 0.35 0.35 35 1013.6
20220516183137 77 323 2.0 12.0 0.00 0.35 0.35 36 1013.7
20220516183039 77 187 2.0 12.0 0.00 0.35 0.35 43 1013.6
20220516182932 77 169 3.0 12.0 0.00 0.35 0.35 40 1013.6
20220516182831 77 254 3.0 12.0 0.00 0.35 0.35 42 1013.6
20220516182729 77 30 2.0 12.0 0.00 0.35 0.35 38 1013.7
20220516182629 77 241 2.0 7.0 0.00 0.35 0.35 37 1013.7
20220516182528 77 261 2.0 7.0 0.00 0.35 0.35 40 1013.6
20220516182428 77 241 2.0 7.0 0.00 0.35 0.35 43 1013.7
20220516182325 76 263 2.0 7.0 0.00 0.35 0.35 39 1013.6
20220516182310 76 249 2.0 7.0 0.00 0.35 0.35 39 1013.6
20220516182226 76 332 2.0 7.0 0.00 0.35 0.35 39 1013.7
20220516182126 76 315 2.0 7.0 0.00 0.35 0.35 40 1013.7
20220516182026 76 1 2.0 7.0 0.00 0.35 0.35 38 1013.8
20220516181925 76 11 3.0 9.0 0.00 0.35 0.35 40 1013.8
20220516181825 76 348 3.0 9.0 0.00 0.35 0.35 45 1013.8
20220516181725 76 357 2.0 9.0 0.00 0.35 0.35 39 1013.8
20220516181625 76 329 2.0 9.0 0.00 0.35 0.35 39 1013.8
20220516181525 77 312 3.0 9.0 0.00 0.35 0.35 38 1013.8
20220516181425 77 309 3.0 9.0 0.00 0.35 0.35 39 1013.8
20220516181325 77 1 3.0 9.0 0.00 0.35 0.35 39 1013.9
20220516181312 77 350 3.0 9.0 0.00 0.35 0.35 39 1013.9
20220516181226 78 1 2.0 9.0 0.00 0.35 0.35 35 1013.9
20220516181123 78 326 2.0 9.0 0.00 0.35 0.35 36 1013.9
20220516181023 77 298 2.0 9.0 0.00 0.35 0.35 38 1013.9
20220516180918 77 310 2.0 8.0 0.00 0.35 0.35 42 1014.0
20220516180820 77 15 2.0 8.0 0.00 0.35 0.35 42 1013.9
20220516180716 76 15 2.0 8.0 0.00 0.35 0.35 44 1014.0
20220516180614 76 339 2.0 11.0 0.00 0.35 0.35 41 1013.9
20220516180515 76 339 2.0 11.0 0.00 0.35 0.35 48 1014.0
20220516180413 76 350 2.0 11.0 0.00 0.35 0.35 47 1014.0
20220516180313 76 20 2.0 11.0 0.00 0.35 0.35 43 1014.0
20220516180213 76 6 3.0 11.0 0.00 0.35 0.35 46 1014.0
20220516180107 76 325 3.0 11.0 0.00 0.35 0.35 43 1014.0
20220516180009 76 322 3.0 11.0 0.00 0.35 0.35 39 1014.0
20220516175910 76 27 2.0 11.0 0.00 0.35 0.35 40 1014.0
20220516175808 76 335 2.0 11.0 0.00 0.35 0.35 40 1014.0
20220516175703 76 339 2.0 9.0 0.00 0.35 0.35 43 1014.0
20220516175601 76 350 2.0 8.0 0.00 0.35 0.35 47 1014.0
20220516175501 76 58 2.0 8.0 0.00 0.35 0.35 44 1013.9
20220516175400 76 277 2.0 8.0 0.00 0.35 0.35 44 1014.0
20220516175307 76 289 2.0 8.0 0.00 0.35 0.35 45 1013.9
20220516175258 76 245 2.0 8.0 0.00 0.35 0.35 45 1013.9
20220516175157 76 23 1.0 5.0 0.00 0.35 0.35 42 1014.0
20220516175057 76 337 1.0 5.0 0.00 0.35 0.35 47 1014.0
20220516174954 76 215 1.0 5.0 0.00 0.35 0.35 44 1014.0
20220516174855 76 215 1.0 5.0 0.00 0.35 0.35 43 1014.0
20220516174751 76 223 2.0 8.0 0.00 0.35 0.35 43 1014.0
20220516174646 75 265 2.0 9.0 0.00 0.35 0.35 45 1014.1
20220516174545 75 318 2.0 9.0 0.00 0.35 0.35 44 1014.1
20220516174446 76 352 2.0 9.0 0.00 0.35 0.35 45 1014.0
20220516174346 76 333 2.0 9.0 0.00 0.35 0.35 50 1014.0
20220516174308 76 333 2.0 9.0 0.00 0.35 0.35 50 1014.0
20220516174245 76 333 2.0 9.0 0.00 0.35 0.35 49 1014.1
20220516174139 76 333 2.0 9.0 0.00 0.35 0.35 42 1014.1
20220516174039 76 217 2.0 9.0 0.00 0.35 0.35 48 1014.2
20220516173939 76 339 2.0 9.0 0.00 0.35 0.35 43 1014.2
20220516173840 76 325 2.0 9.0 0.00 0.35 0.35 43 1014.2
20220516173741 76 150 1.0 9.0 0.00 0.35 0.35 43 1014.1
20220516173640 76 280 1.0 6.0 0.00 0.35 0.35 46 1014.2
20220516173538 75 331 1.0 6.0 0.00 0.35 0.35 50 1014.2
20220516173439 75 49 1.0 5.0 0.00 0.35 0.35 44 1014.2
20220516173337 75 256 1.0 5.0 0.00 0.35 0.35 51 1014.2
20220516173310 75 188 1.0 5.0 0.00 0.35 0.35 47 1014.2
20220516173238 75 186 1.0 5.0 0.00 0.35 0.35 47 1014.3
20220516173135 75 186 1.0 7.0 0.00 0.35 0.35 48 1014.3
20220516173036 75 163 2.0 7.0 0.00 0.35 0.35 46 1014.3
20220516172935 74 356 2.0 7.0 0.00 0.35 0.35 47 1014.2
20220516172836 75 356 2.0 7.0 0.00 0.35 0.35 47 1014.3
20220516172732 75 346 2.0 7.0 0.00 0.35 0.35 46 1014.3
20220516172630 75 346 3.0 7.0 0.00 0.35 0.35 43 1014.3
20220516172528 75 23 2.0 7.0 0.00 0.35 0.35 48 1014.3
20220516172429 75 6 3.0 7.0 0.00 0.35 0.35 46 1014.3
20220516172329 75 325 3.0 7.0 0.00 0.35 0.35 44 1014.4
20220516172305 75 290 3.0 7.0 0.00 0.35 0.35 47 1014.4
20220516172229 75 254 3.0 7.0 0.00 0.35 0.35 42 1014.3
20220516172127 75 207 3.0 7.0 0.00 0.35 0.35 45 1014.4
20220516172028 75 249 3.0 7.0 0.00 0.35 0.35 42 1014.4
20220516171929 75 342 3.0 7.0 0.00 0.35 0.35 41 1014.4
20220516171829 76 356 3.0 7.0 0.00 0.35 0.35 44 1014.4
20220516171727 75 183 2.0 7.0 0.00 0.35 0.35 48 1014.4
20220516171630 75 259 2.0 7.0 0.00 0.35 0.35 50 1014.4
20220516171528 75 273 2.0 7.0 0.00 0.35 0.35 46 1014.4
20220516171432 75 258 2.0 7.0 0.00 0.35 0.35 43 1014.4
20220516171323 75 252 2.0 8.0 0.00 0.35 0.35 43 1014.4
20220516171301 75 223 2.0 8.0 0.00 0.35 0.35 43 1014.4
20220516171223 74 287 2.0 8.0 0.00 0.35 0.35 45 1014.4
20220516171123 74 275 2.0 8.0 0.00 0.35 0.35 53 1014.4
20220516171023 74 136 2.0 10.0 0.00 0.35 0.35 50 1014.4
20220516170925 74 342 2.0 10.0 0.00 0.35 0.35 52 1014.5
20220516170823 74 325 3.0 10.0 0.00 0.35 0.35 56 1014.4
20220516170723 73 306 3.0 10.0 0.00 0.35 0.35 48 1014.4
20220516170623 74 329 3.0 10.0 0.00 0.35 0.35 47 1014.4
20220516170523 74 37 2.0 10.0 0.00 0.35 0.35 46 1014.4
20220516170426 74 37 2.0 10.0 0.00 0.35 0.35 46 1014.3
20220516170325 74 249 3.0 10.0 0.00 0.35 0.35 44 1014.4
20220516170300 74 306 3.0 10.0 0.00 0.35 0.35 44 1014.4
20220516170224 75 47 3.0 10.0 0.00 0.35 0.35 47 1014.4
20220516170122 74 297 2.0 10.0 0.00 0.35 0.35 46 1014.5
20220516170023 74 281 2.0 8.0 0.00 0.35 0.35 45 1014.4
20220516165927 74 293 2.0 8.0 0.00 0.35 0.35 44 1014.5
20220516165822 74 287 2.0 8.0 0.00 0.35 0.35 49 1014.5
20220516165716 74 280 2.0 9.0 0.00 0.35 0.35 50 1014.6
20220516165617 74 323 2.0 9.0 0.00 0.35 0.35 55 1014.6
20220516165519 74 6 2.0 9.0 0.00 0.35 0.35 46 1014.6
20220516165415 74 352 3.0 9.0 0.00 0.35 0.35 48 1014.6
20220516165316 73 250 3.0 9.0 0.00 0.35 0.35 50 1014.6
20220516165259 73 246 3.0 9.0 0.00 0.35 0.35 50 1014.6
20220516165212 73 1 3.0 9.0 0.00 0.35 0.35 48 1014.5
20220516165109 74 340 3.0 9.0 0.00 0.35 0.35 47 1014.5
20220516165010 74 354 3.0 9.0 0.00 0.35 0.35 48 1014.5
20220516164910 74 217 3.0 9.0 0.00 0.35 0.35 44 1014.5
20220516164811 74 315 2.0 9.0 0.00 0.35 0.35 47 1014.5
20220516164704 74 234 2.0 8.0 0.00 0.35 0.35 47 1014.4
20220516164559 74 1 2.0 8.0 0.00 0.35 0.35 46 1014.5
20220516164500 74 11 2.0 8.0 0.00 0.35 0.35 44 1014.5
20220516164359 74 272 2.0 8.0 0.00 0.35 0.35 45 1014.5
20220516164259 74 312 2.0 8.0 0.00 0.35 0.35 52 1014.6
20220516164151 74 159 2.0 7.0 0.00 0.35 0.35 48 1014.6
20220516164051 74 225 2.0 7.0 0.00 0.35 0.35 49 1014.6
20220516163952 74 267 2.0 7.0 0.00 0.35 0.35 50 1014.6
20220516163851 74 1 2.0 7.0 0.00 0.35 0.35 49 1014.6
20220516163754 74 1 2.0 7.0 0.00 0.35 0.35 53 1014.6
20220516163647 74 245 2.0 10.0 0.00 0.35 0.35 50 1014.6
20220516163545 73 271 2.0 10.0 0.00 0.35 0.35 51 1014.7
20220516163446 73 323 2.0 10.0 0.00 0.35 0.35 53 1014.6
20220516163347 73 6 2.0 10.0 0.00 0.35 0.35 51 1014.7
20220516163247 73 6 2.0 10.0 0.00 0.35 0.35 51 1014.7
20220516163141 73 348 2.0 10.0 0.00 0.35 0.35 53 1014.6
20220516163042 73 15 2.0 10.0 0.00 0.35 0.35 51 1014.7
20220516162941 73 1 2.0 10.0 0.00 0.35 0.35 52 1014.7
20220516162839 73 327 2.0 10.0 0.00 0.35 0.35 50 1014.7
20220516162738 73 355 2.0 10.0 0.00 0.35 0.35 49 1014.7
20220516162632 73 15 2.0 9.0 0.00 0.35 0.35 54 1014.7
20220516162532 73 276 2.0 9.0 0.00 0.35 0.35 51 1014.7
20220516162431 73 235 2.0 9.0 0.00 0.35 0.35 53 1014.7
20220516162335 73 196 2.0 9.0 0.00 0.35 0.35 49 1014.7
20220516162248 73 271 2.0 9.0 0.00 0.35 0.35 48 1014.7
20220516162230 73 331 2.0 9.0 0.00 0.35 0.35 54 1014.8
20220516162126 73 291 2.0 6.0 0.00 0.35 0.35 54 1014.7
20220516162024 73 1 2.0 6.0 0.00 0.35 0.35 53 1014.7
20220516161928 72 269 2.0 6.0 0.00 0.35 0.35 52 1014.7
20220516161824 72 340 2.0 6.0 0.00 0.35 0.35 51 1014.7
20220516161724 72 317 2.0 6.0 0.00 0.35 0.35 54 1014.7
20220516161620 72 312 2.0 6.0 0.00 0.35 0.35 54 1014.7
20220516161520 72 300 2.0 6.0 0.00 0.35 0.35 51 1014.7
20220516161432 72 258 2.0 6.0 0.00 0.35 0.35 52 1014.7
20220516161318 72 218 2.0 6.0 0.00 0.35 0.35 52 1014.7
20220516161248 72 217 2.0 6.0 0.00 0.35 0.35 53 1014.8
20220516161216 72 252 2.0 8.0 0.00 0.35 0.35 55 1014.8
20220516161110 72 325 2.0 8.0 0.00 0.35 0.35 55 1014.8
20220516161007 72 299 2.0 8.0 0.00 0.35 0.35 56 1014.8
20220516160908 71 15 2.0 8.0 0.00 0.35 0.35 58 1014.8
20220516160807 71 337 2.0 8.0 0.00 0.35 0.35 59 1014.8
20220516160708 71 306 1.0 8.0 0.00 0.35 0.35 57 1014.7
20220516160605 71 116 1.0 8.0 0.00 0.35 0.35 52 1014.7
20220516160505 72 1 1.0 8.0 0.00 0.35 0.35 52 1014.7
20220516160403 72 351 1.0 8.0 0.00 0.35 0.35 54 1014.8
20220516160303 72 271 1.0 8.0 0.00 0.35 0.35 56 1014.8
20220516160247 71 266 1.0 8.0 0.00 0.35 0.35 59 1014.8
20220516160202 72 152 1.0 4.0 0.00 0.35 0.35 57 1014.8
20220516160058 72 127 1.0 4.0 0.00 0.35 0.35 57 1014.8
20220516155955 72 127 1.0 4.0 0.00 0.35 0.35 53 1014.8
20220516155856 72 144 1.0 4.0 0.00 0.35 0.35 53 1014.8
20220516155759 72 281 1.0 4.0 0.00 0.35 0.35 53 1014.8
20220516155657 72 1 1.0 4.0 0.00 0.35 0.35 53 1014.8
20220516155550 72 271 1.0 4.0 0.00 0.35 0.35 56 1014.8
20220516155449 72 229 1.0 4.0 0.00 0.35 0.35 57 1014.8
20220516155349 72 319 1.0 4.0 0.00 0.35 0.35 59 1014.8
20220516155246 72 283 1.0 4.0 0.00 0.35 0.35 58 1014.8
20220516155148 71 321 1.0 3.0 0.00 0.35 0.35 58 1014.8
20220516155050 71 321 1.0 3.0 0.00 0.35 0.35 58 1014.8
20220516154945 71 314 1.0 3.0 0.00 0.35 0.35 60 1014.8
20220516154846 71 257 1.0 3.0 0.00 0.35 0.35 59 1014.8
20220516154745 71 344 1.0 3.0 0.00 0.35 0.35 58 1014.8
20220516154646 71 173 1.0 6.0 0.00 0.35 0.35 60 1014.8
20220516154545 71 171 1.0 6.0 0.00 0.35 0.35 57 1014.8
20220516154446 71 171 1.0 6.0 0.00 0.35 0.35 60 1014.8
20220516154345 71 171 1.0 6.0 0.00 0.35 0.35 59 1014.8
20220516154245 71 226 1.0 6.0 0.00 0.35 0.35 60 1014.8
20220516154147 71 256 1.0 6.0 0.00 0.35 0.35 60 1014.8
20220516154045 70 256 1.0 6.0 0.00 0.35 0.35 60 1014.8
20220516153945 70 256 2.0 6.0 0.00 0.35 0.35 61 1014.9
20220516153844 70 256 2.0 8.0 0.00 0.35 0.35 62 1014.8
20220516153742 70 232 2.0 8.0 0.00 0.35 0.35 63 1014.9
20220516153643 70 317 2.0 8.0 0.00 0.35 0.35 63 1014.8
20220516153554 70 321 2.0 8.0 0.00 0.35 0.35 63 1014.9
20220516153457 69 299 2.0 8.0 0.00 0.35 0.35 61 1014.8
20220516153352 69 240 2.0 8.0 0.00 0.35 0.35 61 1014.9
20220516153253 69 239 2.0 8.0 0.00 0.35 0.35 63 1014.9
20220516153137 69 320 2.0 8.0 0.00 0.35 0.35 63 1014.9
20220516153036 69 327 3.0 8.0 0.00 0.35 0.35 63 1014.9
20220516152952 69 306 2.0 8.0 0.00 0.35 0.35 62 1014.8
20220516152830 69 258 2.0 6.0 0.00 0.35 0.35 62 1014.8
20220516152729 69 178 2.0 6.0 0.00 0.35 0.35 62 1014.8
20220516152630 68 18 2.0 6.0 0.00 0.35 0.35 63 1014.8
20220516152530 68 212 2.0 9.0 0.00 0.35 0.35 64 1014.8
20220516152430 68 273 2.0 9.0 0.00 0.35 0.35 66 1014.9
20220516152327 68 299 2.0 9.0 0.00 0.35 0.35 66 1014.8
20220516152227 68 223 2.0 9.0 0.00 0.35 0.35 66 1014.8
20220516152128 68 246 2.0 9.0 0.00 0.35 0.35 65 1014.8
20220516152027 67 274 2.0 9.0 0.00 0.35 0.35 67 1014.8
20220516151924 67 179 3.0 9.0 0.00 0.35 0.35 65 1014.8
20220516151819 67 181 3.0 9.0 0.00 0.35 0.35 66 1014.8
20220516151715 67 48 2.0 9.0 0.00 0.35 0.35 67 1014.8
20220516151617 67 329 2.0 9.0 0.00 0.35 0.35 67 1014.8
20220516151515 67 168 2.0 7.0 0.00 0.35 0.35 67 1014.8
20220516151424 67 191 2.0 7.0 0.00 0.35 0.35 67 1014.8
20220516151310 67 243 2.0 7.0 0.00 0.35 0.35 67 1014.8
20220516151240 67 275 2.0 7.0 0.00 0.35 0.35 67 1014.8
20220516151209 67 258 2.0 7.0 0.00 0.35 0.35 67 1014.8
20220516151110 66 290 2.0 7.0 0.00 0.35 0.35 68 1014.8
20220516151009 66 294 2.0 7.0 0.00 0.35 0.35 68 1014.7
20220516150910 66 269 2.0 7.0 0.00 0.35 0.35 69 1014.7
20220516150803 66 85 2.0 7.0 0.00 0.35 0.35 69 1014.7
20220516150705 66 85 2.0 7.0 0.00 0.35 0.35 67 1014.7
20220516150606 66 313 2.0 7.0 0.00 0.35 0.35 67 1014.7
20220516150504 66 350 2.0 7.0 0.00 0.35 0.35 69 1014.7
20220516150402 66 352 2.0 7.0 0.00 0.35 0.35 68 1014.7
20220516150259 66 273 2.0 6.0 0.00 0.35 0.35 68 1014.7
20220516150238 66 289 2.0 6.0 0.00 0.35 0.35 68 1014.7
20220516150157 66 289 2.0 6.0 0.00 0.35 0.35 67 1014.7
20220516150058 66 290 2.0 6.0 0.00 0.35 0.35 68 1014.7
20220516145957 65 269 2.0 6.0 0.00 0.35 0.35 68 1014.7
20220516145854 65 298 2.0 6.0 0.00 0.35 0.35 69 1014.7
20220516145747 65 284 2.0 6.0 0.00 0.35 0.35 69 1014.7
20220516145648 65 281 2.0 6.0 0.00 0.35 0.35 69 1014.6
20220516145550 65 266 2.0 6.0 0.00 0.35 0.35 70 1014.6
20220516145448 65 337 2.0 6.0 0.00 0.35 0.35 69 1014.6
20220516145348 65 294 2.0 6.0 0.00 0.35 0.35 70 1014.7
20220516145242 65 326 2.0 6.0 0.00 0.35 0.35 71 1014.6
20220516145141 65 354 2.0 6.0 0.00 0.35 0.35 70 1014.6
20220516145043 65 315 2.0 6.0 0.00 0.35 0.35 70 1014.6
20220516144943 65 295 2.0 6.0 0.00 0.35 0.35 70 1014.6
20220516144842 65 244 2.0 7.0 0.00 0.35 0.35 71 1014.6
20220516144737 65 235 2.0 7.0 0.00 0.35 0.35 71 1014.6
20220516144637 65 225 2.0 7.0 0.00 0.35 0.35 71 1014.6
20220516144537 65 252 2.0 7.0 0.00 0.35 0.35 72 1014.6
20220516144438 65 229 2.0 7.0 0.00 0.35 0.35 73 1014.6
20220516144337 65 301 2.0 7.0 0.00 0.35 0.35 73 1014.5
20220516144243 64 323 2.0 7.0 0.00 0.35 0.35 73 1014.5
20220516144238 64 327 2.0 7.0 0.00 0.35 0.35 72 1014.5
20220516144135 64 329 2.0 7.0 0.00 0.35 0.35 71 1014.5
20220516144035 64 328 2.0 7.0 0.00 0.35 0.35 72 1014.5
20220516143935 64 329 1.0 7.0 0.00 0.35 0.35 72 1014.5
20220516143834 64 262 1.0 7.0 0.00 0.35 0.35 73 1014.5
20220516143733 64 293 1.0 7.0 0.00 0.35 0.35 74 1014.5
20220516143633 64 321 1.0 7.0 0.00 0.35 0.35 74 1014.5
20220516143534 64 343 1.0 7.0 0.00 0.35 0.35 73 1014.5
20220516143434 64 202 1.0 7.0 0.00 0.35 0.35 73 1014.5
20220516143335 64 289 1.0 7.0 0.00 0.35 0.35 74 1014.5
20220516143235 64 286 2.0 7.0 0.00 0.35 0.35 74 1014.5
20220516143131 64 286 2.0 7.0 0.00 0.35 0.35 75 1014.5
20220516143031 64 285 2.0 7.0 0.00 0.35 0.35 75 1014.5
20220516142929 64 285 2.0 7.0 0.00 0.35 0.35 74 1014.5
20220516142830 64 325 2.0 7.0 0.00 0.35 0.35 75 1014.4
20220516142732 64 32 2.0 6.0 0.00 0.35 0.35 74 1014.4
20220516142630 64 30 2.0 6.0 0.00 0.35 0.35 74 1014.5
20220516142525 64 25 2.0 6.0 0.00 0.35 0.35 75 1014.4
20220516142425 64 345 2.0 6.0 0.00 0.35 0.35 74 1014.4
20220516142327 64 57 2.0 6.0 0.00 0.35 0.35 74 1014.4
20220516142239 64 59 2.0 6.0 0.00 0.35 0.35 75 1014.4
20220516142225 64 317 2.0 6.0 0.00 0.35 0.35 75 1014.4
20220516142123 63 281 2.0 7.0 0.00 0.35 0.35 75 1014.5
20220516142025 63 322 2.0 7.0 0.00 0.35 0.35 74 1014.5
20220516141922 63 339 3.0 7.0 0.00 0.35 0.35 74 1014.5
20220516141821 63 333 2.0 7.0 0.00 0.35 0.35 75 1014.5
20220516141720 63 15 2.0 7.0 0.00 0.35 0.35 75 1014.5
20220516141617 63 329 2.0 7.0 0.00 0.35 0.35 75 1014.4
20220516141513 63 356 2.0 7.0 0.00 0.35 0.35 77 1014.4
20220516141413 63 320 3.0 8.0 0.00 0.35 0.35 76 1014.5
20220516141311 63 314 3.0 8.0 0.00 0.35 0.35 76 1014.5
20220516141237 63 346 3.0 8.0 0.00 0.35 0.35 76 1014.4
20220516141214 63 280 3.0 8.0 0.00 0.35 0.35 76 1014.4
20220516141112 63 333 3.0 8.0 0.00 0.35 0.35 76 1014.4
20220516141006 63 40 3.0 8.0 0.00 0.35 0.35 76 1014.4
20220516140906 63 263 3.0 8.0 0.00 0.35 0.35 77 1014.4
20220516140808 63 331 3.0 8.0 0.00 0.35 0.35 77 1014.4
20220516140705 63 259 3.0 8.0 0.00 0.35 0.35 77 1014.4
20220516140611 63 1 3.0 8.0 0.00 0.35 0.35 77 1014.4
20220516140501 62 337 3.0 8.0 0.00 0.35 0.35 77 1014.3
20220516140359 62 313 2.0 8.0 0.00 0.35 0.35 77 1014.4
20220516140302 62 18 2.0 8.0 0.00 0.35 0.35 78 1014.4
20220516140238 62 318 2.0 8.0 0.00 0.35 0.35 78 1014.3
20220516140157 62 232 2.0 8.0 0.00 0.35 0.35 78 1014.3
20220516140059 62 269 2.0 8.0 0.00 0.35 0.35 78 1014.2
20220516135957 62 312 2.0 7.0 0.00 0.35 0.35 79 1014.2
20220516135858 62 335 2.0 7.0 0.00 0.35 0.35 79 1014.2
20220516135753 62 333 2.0 8.0 0.00 0.35 0.35 79 1014.2
20220516135652 62 1 2.0 8.0 0.00 0.35 0.35 80 1014.2
20220516135552 62 327 2.0 8.0 0.00 0.35 0.35 81 1014.2
20220516135445 62 225 2.0 8.0 0.00 0.35 0.35 80 1014.2
20220516135345 62 222 2.0 8.0 0.00 0.35 0.35 81 1014.2
20220516135244 62 6 2.0 8.0 0.00 0.35 0.35 82 1014.1
20220516135232 62 11 2.0 8.0 0.00 0.35 0.35 82 1014.1
20220516135143 62 36 2.0 8.0 0.00 0.35 0.35 82 1014.1
20220516135045 62 37 2.0 8.0 0.00 0.35 0.35 82 1014.2
20220516134942 62 242 2.0 8.0 0.00 0.35 0.35 82 1014.1
20220516134842 62 348 1.0 8.0 0.00 0.35 0.35 82 1014.1
20220516134742 62 328 2.0 7.0 0.00 0.35 0.35 82 1014.1
20220516134642 62 327 2.0 7.0 0.00 0.35 0.35 82 1014.1
20220516134544 62 317 1.0 7.0 0.00 0.35 0.35 82 1014.1
20220516134444 62 350 1.0 7.0 0.00 0.35 0.35 82 1014.1
20220516134342 62 285 1.0 7.0 0.00 0.35 0.35 82 1014.1
20220516134233 62 356 2.0 7.0 0.00 0.35 0.35 82 1014.1
20220516134139 62 353 2.0 7.0 0.00 0.35 0.35 82 1014.1
20220516134040 62 353 2.0 7.0 0.00 0.35 0.35 82 1014.1
20220516133937 62 355 2.0 7.0 0.00 0.35 0.35 82 1014.1
20220516133838 62 334 2.0 7.0 0.00 0.35 0.35 82 1014.1
20220516133738 62 267 2.0 7.0 0.00 0.35 0.35 82 1014.0
20220516133637 62 287 2.0 7.0 0.00 0.35 0.35 83 1014.0
20220516133538 62 280 2.0 7.0 0.00 0.35 0.35 83 1014.0
20220516133437 62 16 1.0 7.0 0.00 0.35 0.35 83 1014.0
20220516133340 62 40 1.0 7.0 0.00 0.35 0.35 83 1014.0
20220516133227 62 285 1.0 7.0 0.00 0.35 0.35 83 1014.0
20220516133132 62 346 1.0 5.0 0.00 0.35 0.35 83 1013.9
20220516133032 62 346 1.0 5.0 0.00 0.35 0.35 83 1013.9
20220516132935 62 327 1.0 5.0 0.00 0.35 0.35 83 1014.0
20220516132832 62 315 1.0 5.0 0.00 0.35 0.35 83 1013.9
20220516132728 61 354 2.0 5.0 0.00 0.35 0.35 83 1013.9
20220516132623 61 283 2.0 5.0 0.00 0.35 0.35 84 1013.9
20220516132524 61 248 2.0 7.0 0.00 0.35 0.35 84 1013.9
20220516132423 61 248 2.0 7.0 0.00 0.35 0.35 84 1013.9
20220516132324 61 305 2.0 7.0 0.00 0.35 0.35 84 1013.9
20220516132223 61 283 2.0 7.0 0.00 0.35 0.35 83 1014.0
20220516132122 61 284 2.0 7.0 0.00 0.35 0.35 83 1013.9
20220516132017 61 300 2.0 7.0 0.00 0.35 0.35 82 1013.9
20220516131917 61 302 2.0 7.0 0.00 0.35 0.35 82 1013.9
20220516131816 61 324 2.0 7.0 0.00 0.35 0.35 83 1013.8
20220516131713 61 289 2.0 7.0 0.00 0.35 0.35 84 1013.8
20220516131611 61 312 1.0 7.0 0.00 0.35 0.35 85 1013.8
20220516131515 61 277 1.0 7.0 0.00 0.35 0.35 86 1013.8
20220516131411 61 61 1.0 4.0 0.00 0.35 0.35 85 1013.8
20220516131311 61 95 2.0 4.0 0.00 0.35 0.35 86 1013.7
20220516131227 61 281 2.0 6.0 0.00 0.35 0.35 86 1013.7
20220516131204 61 295 2.0 6.0 0.00 0.35 0.35 86 1013.7
20220516131103 61 298 2.0 6.0 0.00 0.35 0.35 86 1013.7
20220516131005 61 298 2.0 10.0 0.00 0.35 0.35 86 1013.6
20220516130905 61 277 2.0 10.0 0.00 0.35 0.35 86 1013.6
20220516130805 61 346 2.0 10.0 0.00 0.35 0.35 86 1013.6
20220516130700 61 346 2.0 10.0 0.00 0.35 0.35 86 1013.6
20220516130558 61 346 2.0 10.0 0.00 0.35 0.35 86 1013.6
20220516130459 61 11 2.0 10.0 0.00 0.35 0.35 86 1013.5
20220516130353 61 325 2.0 10.0 0.00 0.35 0.35 86 1013.5
20220516130252 61 322 1.0 10.0 0.00 0.35 0.35 86 1013.6
20220516130226 61 335 1.0 10.0 0.00 0.35 0.35 87 1013.6
20220516130149 61 278 1.0 10.0 0.00 0.35 0.35 87 1013.5
20220516130047 61 296 1.0 10.0 0.00 0.35 0.35 87 1013.5
20220516125948 61 17 1.0 5.0 0.00 0.35 0.35 87 1013.5
20220516125848 61 18 1.0 8.0 0.00 0.35 0.35 87 1013.4
20220516125748 61 339 1.0 8.0 0.00 0.35 0.35 87 1013.4
20220516125642 61 274 1.0 8.0 0.00 0.35 0.35 87 1013.4
20220516125540 61 252 1.0 8.0 0.00 0.35 0.35 87 1013.5
20220516125441 61 205 2.0 8.0 0.00 0.35 0.35 87 1013.4
20220516125341 61 205 2.0 8.0 0.00 0.35 0.35 87 1013.4
20220516125229 61 205 2.0 8.0 0.00 0.35 0.35 87 1013.5
20220516125135 61 205 2.0 8.0 0.00 0.35 0.35 87 1013.4
20220516125035 61 356 2.0 8.0 0.00 0.35 0.35 87 1013.4
20220516124935 61 262 2.0 6.0 0.00 0.35 0.35 88 1013.4
20220516124834 61 1 2.0 6.0 0.00 0.35 0.35 87 1013.5
20220516124736 61 99 2.0 6.0 0.00 0.35 0.35 87 1013.5
20220516124629 61 344 2.0 6.0 0.00 0.35 0.35 88 1013.5
20220516124528 61 28 2.0 6.0 0.00 0.35 0.35 87 1013.5
20220516124428 61 15 2.0 6.0 0.00 0.35 0.35 88 1013.5
20220516124328 61 1 2.0 6.0 0.00 0.35 0.35 88 1013.5
20220516124226 61 333 2.0 6.0 0.00 0.35 0.35 88 1013.5
20220516124124 61 354 2.0 6.0 0.00 0.35 0.35 88 1013.5
20220516124020 61 11 2.0 6.0 0.00 0.35 0.35 88 1013.4
20220516123922 61 11 2.0 6.0 0.00 0.35 0.35 88 1013.4
20220516123822 61 328 1.0 6.0 0.00 0.35 0.35 88 1013.5
20220516123722 61 11 1.0 6.0 0.00 0.35 0.35 88 1013.4
20220516123616 61 312 1.0 6.0 0.00 0.35 0.35 88 1013.5
20220516123515 61 310 1.0 6.0 0.00 0.35 0.35 88 1013.4
20220516123416 61 279 1.0 6.0 0.00 0.35 0.35 88 1013.4
20220516123316 61 325 1.0 6.0 0.00 0.35 0.35 88 1013.4
20220516123217 61 308 1.0 6.0 0.00 0.35 0.35 88 1013.5
20220516123110 61 301 1.0 6.0 0.00 0.35 0.35 88 1013.5
20220516123008 61 298 2.0 6.0 0.00 0.35 0.35 88 1013.5
20220516122908 61 296 2.0 10.0 0.00 0.35 0.35 88 1013.5
20220516122810 61 33 2.0 10.0 0.00 0.35 0.35 88 1013.4
20220516122708 61 33 2.0 10.0 0.00 0.35 0.35 88 1013.5
20220516122604 61 33 2.0 10.0 0.00 0.35 0.35 88 1013.4
20220516122505 61 1 2.0 10.0 0.00 0.35 0.35 88 1013.4
20220516122401 61 130 2.0 10.0 0.00 0.35 0.35 88 1013.4
20220516122306 61 317 2.0 10.0 0.00 0.35 0.35 88 1013.4
20220516122219 61 28 2.0 10.0 0.00 0.35 0.35 88 1013.4
20220516122203 61 345 2.0 10.0 0.00 0.35 0.35 88 1013.4
20220516122057 61 236 2.0 10.0 0.00 0.35 0.35 88 1013.4
20220516121959 61 331 1.0 10.0 0.00 0.35 0.35 89 1013.4
20220516121857 61 334 1.0 4.0 0.00 0.35 0.35 89 1013.4
20220516121759 61 252 1.0 4.0 0.00 0.35 0.35 89 1013.3
20220516121657 61 284 1.0 4.0 0.00 0.35 0.35 89 1013.3
20220516121553 61 168 1.0 4.0 0.00 0.35 0.35 89 1013.3
20220516121453 61 277 1.0 4.0 0.00 0.35 0.35 90 1013.2
20220516121350 61 278 1.0 4.0 0.00 0.35 0.35 90 1013.2
20220516121249 61 298 1.0 4.0 0.00 0.35 0.35 90 1013.2
20220516121219 61 298 0.0 4.0 0.00 0.35 0.35 90 1013.2
20220516121149 61 279 0.0 4.0 0.00 0.35 0.35 90 1013.2
20220516121049 61 252 0.0 4.0 0.00 0.35 0.35 90 1013.2
20220516120949 61 252 0.0 4.0 0.00 0.35 0.35 90 1013.1
20220516120850 61 252 0.0 4.0 0.00 0.35 0.35 90 1013.1
20220516120748 61 252 0.0 4.0 0.00 0.35 0.35 90 1013.1
20220516120645 61 256 0.0 4.0 0.00 0.35 0.35 90 1013.1
20220516120545 61 246 0.0 4.0 0.00 0.35 0.35 90 1013.1
20220516120444 61 44 0.0 2.0 0.00 0.35 0.35 90 1013.1
20220516120347 61 44 0.0 2.0 0.00 0.35 0.35 90 1013.0
20220516120245 61 44 0.0 2.0 0.00 0.35 0.35 90 1013.0
20220516120218 61 44 0.0 2.0 0.00 0.35 0.35 90 1013.0
20220516120146 61 44 0.0 2.0 0.00 0.35 0.35 90 1013.0
20220516120046 61 44 0.0 2.0 0.00 0.35 0.35 90 1012.9
20220516115945 61 44 0.0 2.0 0.00 0.35 0.35 90 1012.9
20220516115844 61 44 0.0 3.0 0.00 0.35 0.35 90 1012.9
20220516115746 61 51 1.0 3.0 0.00 0.35 0.35 90 1013.0
20220516115645 61 51 1.0 4.0 0.00 0.35 0.35 90 1013.0
20220516115544 61 51 1.0 4.0 0.00 0.35 0.35 90 1012.9
20220516115443 61 51 1.0 5.0 0.00 0.35 0.35 90 1012.9
20220516115339 61 111 1.0 5.0 0.00 0.35 0.35 90 1012.9
20220516115218 61 285 1.0 5.0 0.00 0.35 0.35 90 1012.9
20220516115139 61 285 1.0 5.0 0.00 0.35 0.35 90 1012.9
20220516115041 61 309 1.0 5.0 0.00 0.35 0.35 90 1012.9
20220516114937 61 308 1.0 5.0 0.00 0.35 0.35 90 1012.9
20220516114835 61 283 1.0 5.0 0.00 0.35 0.35 90 1012.8
20220516114735 61 277 1.0 5.0 0.00 0.35 0.35 90 1012.9
20220516114638 61 337 1.0 5.0 0.00 0.35 0.35 91 1012.8
20220516114536 61 323 1.0 5.0 0.00 0.35 0.35 91 1012.8
20220516114433 61 1 1.0 4.0 0.00 0.35 0.35 91 1012.8
20220516114329 61 312 1.0 4.0 0.00 0.35 0.35 91 1012.8
20220516114220 61 308 1.0 4.0 0.00 0.35 0.35 91 1012.8
20220516114125 61 345 1.0 4.0 0.00 0.35 0.35 91 1012.7
20220516114023 61 345 1.0 5.0 0.00 0.35 0.35 91 1012.8
20220516113924 61 335 1.0 5.0 0.00 0.35 0.35 91 1012.8
20220516113817 61 350 1.0 5.0 0.00 0.35 0.35 91 1012.8
20220516113715 61 348 1.0 5.0 0.00 0.35 0.35 91 1012.7
20220516113618 61 321 1.0 5.0 0.00 0.35 0.35 91 1012.7
20220516113515 61 11 1.0 5.0 0.00 0.35 0.35 91 1012.7
20220516113418 61 319 1.0 5.0 0.00 0.35 0.35 91 1012.6
20220516113313 61 15 1.0 5.0 0.00 0.35 0.35 91 1012.7
20220516113213 61 15 1.0 5.0 0.00 0.35 0.35 91 1012.6
20220516113112 61 16 0.0 5.0 0.00 0.35 0.35 91 1012.5
20220516113011 61 331 0.0 5.0 0.00 0.35 0.35 91 1012.5
20220516112910 61 277 0.0 3.0 0.00 0.35 0.35 91 1012.5
20220516112809 61 276 0.0 3.0 0.00 0.35 0.35 91 1012.5
20220516112705 61 276 0.0 3.0 0.00 0.35 0.35 91 1012.5
20220516112602 61 277 0.0 3.0 0.00 0.35 0.35 91 1012.4
20220516112503 61 292 0.0 3.0 0.00 0.35 0.35 91 1012.5
20220516112404 61 292 0.0 3.0 0.00 0.35 0.35 91 1012.4
20220516112301 61 292 0.0 3.0 0.00 0.35 0.35 91 1012.4
20220516112219 61 292 0.0 3.0 0.00 0.35 0.35 91 1012.4
20220516112157 61 292 0.0 3.0 0.00 0.35 0.35 91 1012.4
20220516112058 61 292 1.0 3.0 0.00 0.35 0.35 91 1012.4
20220516111959 61 292 0.0 3.0 0.00 0.35 0.35 91 1012.4
20220516111900 61 267 0.0 2.0 0.00 0.35 0.35 91 1012.4
20220516111758 61 267 0.0 2.0 0.00 0.35 0.35 91 1012.4
20220516111654 61 267 0.0 2.0 0.00 0.35 0.35 91 1012.3
20220516111553 61 267 0.0 2.0 0.00 0.35 0.35 91 1012.3
20220516111454 61 252 0.0 2.0 0.00 0.35 0.35 91 1012.3
20220516111352 61 252 0.0 2.0 0.00 0.35 0.35 91 1012.2
20220516111253 61 252 0.0 2.0 0.00 0.35 0.35 91 1012.2
20220516111214 61 252 0.0 2.0 0.00 0.35 0.35 91 1012.2
20220516111149 61 252 0.0 2.0 0.00 0.35 0.35 91 1012.2
20220516111052 61 251 0.0 2.0 0.00 0.35 0.35 91 1012.2
20220516110947 61 251 0.0 2.0 0.00 0.35 0.35 91 1012.1
20220516110845 61 251 0.0 2.0 0.00 0.35 0.35 91 1012.1
20220516110747 61 235 0.0 2.0 0.00 0.35 0.35 91 1012.1
20220516110647 61 235 0.0 2.0 0.00 0.35 0.35 91 1012.1
20220516110543 61 235 0.0 2.0 0.00 0.35 0.35 91 1012.1
20220516110443 61 235 0.0 2.0 0.00 0.35 0.35 91 1012.0
20220516110343 61 235 0.0 2.0 0.00 0.35 0.35 91 1012.1
20220516110245 61 235 0.0 3.0 0.00 0.35 0.35 91 1012.0
20220516110212 61 235 0.0 3.0 0.00 0.35 0.35 91 1012.0
20220516110142 61 235 0.0 3.0 0.00 0.35 0.35 91 1012.0
20220516110041 61 232 0.0 3.0 0.00 0.35 0.35 91 1011.9
20220516105941 61 232 0.0 3.0 0.00 0.35 0.35 91 1011.9
20220516105842 61 233 0.0 3.0 0.00 0.35 0.35 91 1011.9
20220516105742 61 233 0.0 3.0 0.00 0.35 0.35 91 1011.9
20220516105639 61 352 0.0 3.0 0.00 0.35 0.35 91 1011.8
20220516105540 61 352 0.0 3.0 0.00 0.35 0.35 91 1011.8
20220516105440 61 352 0.0 3.0 0.00 0.35 0.35 91 1011.8
20220516105337 61 352 0.0 3.0 0.00 0.35 0.35 91 1011.8
20220516105235 61 11 0.0 2.0 0.00 0.35 0.35 91 1011.8
20220516105213 61 11 0.0 2.0 0.00 0.35 0.35 91 1011.8
20220516105133 61 11 0.0 2.0 0.00 0.35 0.35 91 1011.8
20220516105033 61 11 0.0 2.0 0.00 0.35 0.35 90 1011.7
20220516104935 61 11 0.0 2.0 0.00 0.35 0.35 91 1011.7
20220516104829 61 11 0.0 2.0 0.00 0.35 0.35 91 1011.7
20220516104725 61 15 0.0 2.0 0.00 0.35 0.35 91 1011.7
20220516104626 61 16 0.0 1.0 0.00 0.35 0.35 91 1011.7
20220516104526 61 16 0.0 1.0 0.00 0.35 0.35 91 1011.6
20220516104425 61 16 0.0 1.0 0.00 0.35 0.35 91 1011.6
20220516104323 62 16 0.0 2.0 0.00 0.35 0.35 91 1011.5
20220516104210 61 16 0.0 2.0 0.00 0.35 0.35 91 1011.5
20220516104122 61 16 0.0 2.0 0.00 0.35 0.35 91 1011.5
20220516104021 62 16 0.0 2.0 0.00 0.35 0.35 91 1011.5
20220516103921 62 16 0.0 2.0 0.00 0.35 0.35 91 1011.5
20220516103821 62 20 0.0 2.0 0.00 0.35 0.35 91 1011.5
20220516103718 62 20 0.0 2.0 0.00 0.35 0.35 91 1011.5
20220516103618 62 20 0.0 2.0 0.00 0.35 0.35 91 1011.4
20220516103518 62 20 0.0 2.0 0.00 0.35 0.35 91 1011.3
20220516103416 62 20 0.0 2.0 0.00 0.35 0.35 91 1011.3
20220516103318 62 19 0.0 2.0 0.00 0.35 0.35 91 1011.3
20220516103211 62 19 0.0 2.0 0.00 0.35 0.35 91 1011.3
20220516103116 62 19 0.0 2.0 0.00 0.35 0.35 91 1011.3
20220516103014 62 24 0.0 2.0 0.00 0.35 0.35 91 1011.2
20220516102911 62 23 0.0 2.0 0.00 0.35 0.35 91 1011.2
20220516102812 62 339 0.0 2.0 0.00 0.35 0.35 91 1011.2
20220516102713 62 313 0.0 2.0 0.00 0.35 0.35 91 1011.2
20220516102611 62 313 0.0 2.0 0.00 0.35 0.35 91 1011.3
20220516102505 62 323 0.0 2.0 0.00 0.35 0.35 91 1011.3
20220516102404 62 323 0.0 3.0 0.00 0.35 0.35 91 1011.3
20220516102305 62 323 0.0 3.0 0.00 0.35 0.35 91 1011.2
20220516102208 62 323 0.0 3.0 0.00 0.35 0.35 91 1011.3
20220516102203 62 323 0.0 3.0 0.00 0.35 0.35 91 1011.3
20220516102105 62 323 0.0 3.0 0.00 0.35 0.35 91 1011.2
20220516102004 62 323 0.0 3.0 0.00 0.35 0.35 91 1011.2
20220516101901 62 331 0.0 3.0 0.00 0.35 0.35 91 1011.2
20220516101801 62 335 0.0 3.0 0.00 0.35 0.35 91 1011.1
20220516101704 62 334 0.0 3.0 0.00 0.35 0.35 91 1011.2
20220516101558 62 332 0.0 3.0 0.00 0.35 0.35 91 1011.1
20220516101450 62 332 0.0 3.0 0.00 0.35 0.35 91 1011.1
20220516101351 62 332 0.0 3.0 0.00 0.35 0.35 91 1011.0
20220516101249 62 332 0.0 3.0 0.00 0.35 0.35 91 1011.0
20220516101208 62 332 0.0 3.0 0.00 0.35 0.35 91 1011.0
20220516101150 62 332 0.0 3.0 0.00 0.35 0.35 91 1011.0
20220516101049 62 323 0.0 3.0 0.00 0.35 0.35 91 1011.0
20220516100948 62 323 0.0 3.0 0.00 0.35 0.35 91 1011.0
20220516100849 62 323 1.0 3.0 0.00 0.35 0.35 91 1010.9
20220516100750 62 324 1.0 3.0 0.00 0.35 0.35 91 1010.9
20220516100648 62 336 1.0 3.0 0.00 0.35 0.35 91 1010.9
20220516100545 62 335 1.0 3.0 0.00 0.35 0.35 91 1010.9
20220516100447 62 1 0.0 3.0 0.00 0.35 0.35 91 1010.9
20220516100347 62 355 0.0 3.0 0.00 0.35 0.35 91 1010.9
20220516100245 62 313 0.0 3.0 0.00 0.35 0.35 91 1010.9
20220516100207 62 310 0.0 3.0 0.00 0.35 0.35 91 1010.9
20220516100148 62 310 0.0 3.0 0.00 0.35 0.35 91 1010.9
20220516100045 62 310 0.0 3.0 0.00 0.35 0.35 91 1010.9
20220516095946 62 310 0.0 3.0 0.00 0.35 0.35 91 1010.9
20220516095847 62 351 0.0 3.0 0.00 0.35 0.35 91 1010.9
20220516095742 62 354 0.0 3.0 0.00 0.35 0.35 91 1010.8
20220516095642 62 354 0.0 3.0 0.00 0.35 0.35 91 1010.9
20220516095543 62 337 0.0 3.0 0.00 0.35 0.35 91 1010.8
20220516095442 62 338 0.0 3.0 0.00 0.35 0.35 91 1010.8
20220516095345 62 334 0.0 3.0 0.00 0.35 0.35 91 1010.8
20220516095239 62 6 0.0 3.0 0.00 0.35 0.35 91 1010.8
20220516095206 62 6 0.0 3.0 0.00 0.35 0.35 91 1010.8
20220516095136 62 6 0.0 3.0 0.00 0.35 0.35 91 1010.8
20220516095036 62 6 0.0 3.0 0.00 0.35 0.35 91 1010.7
20220516094935 62 18 0.0 3.0 0.00 0.35 0.35 91 1010.6
20220516094836 62 18 0.0 3.0 0.00 0.35 0.35 91 1010.6
20220516094736 62 267 0.0 3.0 0.00 0.35 0.35 91 1010.6
20220516094634 62 266 0.0 3.0 0.00 0.35 0.35 91 1010.6
20220516094533 62 275 0.0 2.0 0.00 0.35 0.35 91 1010.6
20220516094430 62 275 0.0 2.0 0.00 0.35 0.35 91 1010.5
20220516094331 62 273 0.0 1.0 0.00 0.35 0.35 91 1010.5
20220516094207 62 273 0.0 1.0 0.00 0.35 0.35 91 1010.5
20220516094123 62 273 0.0 1.0 0.00 0.35 0.35 91 1010.5
20220516094021 62 273 0.0 1.0 0.00 0.35 0.35 91 1010.5
20220516093923 62 273 0.0 1.0 0.00 0.35 0.35 91 1010.5
20220516093818 62 271 0.0 2.0 0.00 0.35 0.35 91 1010.4
20220516093719 62 271 0.0 2.0 0.00 0.35 0.35 91 1010.4
20220516093615 62 271 0.0 2.0 0.00 0.35 0.35 91 1010.4
20220516093516 62 271 0.0 2.0 0.00 0.35 0.35 91 1010.4
20220516093413 62 271 0.0 2.0 0.00 0.35 0.35 91 1010.3
20220516093312 62 271 0.0 2.0 0.00 0.35 0.35 91 1010.2
20220516093209 62 271 0.0 2.0 0.00 0.35 0.35 91 1010.2
20220516093106 62 271 0.0 2.0 0.00 0.35 0.35 91 1010.2
20220516093007 62 271 0.0 2.0 0.00 0.35 0.35 90 1010.2
20220516092905 62 271 0.0 2.0 0.00 0.35 0.35 90 1010.2
20220516092806 62 277 0.0 2.0 0.00 0.35 0.35 90 1010.2
20220516092704 62 277 0.0 2.0 0.00 0.35 0.35 90 1010.2
20220516092603 62 277 0.0 2.0 0.00 0.35 0.35 90 1010.2
20220516092503 62 277 0.0 2.0 0.00 0.35 0.35 90 1010.2
20220516092401 62 277 0.0 2.0 0.00 0.35 0.35 90 1010.3
20220516092257 62 271 0.0 2.0 0.00 0.35 0.35 90 1010.2
20220516092205 62 271 0.0 2.0 0.00 0.35 0.35 90 1010.2
20220516092155 62 271 0.0 2.0 0.00 0.35 0.35 90 1010.2
20220516092054 62 273 0.0 2.0 0.00 0.35 0.35 90 1010.2
20220516091951 62 273 0.0 2.0 0.00 0.35 0.35 90 1010.2
20220516091854 62 273 0.0 2.0 0.00 0.35 0.35 90 1010.3
20220516091751 62 273 0.0 2.0 0.00 0.35 0.35 90 1010.3
20220516091645 62 273 0.0 2.0 0.00 0.35 0.35 90 1010.2
20220516091543 62 273 0.0 2.0 0.00 0.35 0.35 90 1010.2
20220516091444 62 272 0.0 0.0 0.00 0.35 0.35 90 1010.2
20220516091343 62 272 0.0 1.0 0.00 0.35 0.35 90 1010.1
20220516091244 62 272 0.0 2.0 0.00 0.35 0.35 90 1010.2
20220516091204 62 272 0.0 2.0 0.00 0.35 0.35 90 1010.2
20220516091142 62 272 0.0 3.0 0.00 0.35 0.35 90 1010.1
20220516091037 62 272 0.0 3.0 0.00 0.35 0.35 90 1010.2
20220516090937 62 272 0.0 3.0 0.00 0.35 0.35 90 1010.1
20220516090835 62 272 0.0 3.0 0.00 0.35 0.35 90 1010.0
20220516090734 62 272 0.0 3.0 0.00 0.35 0.35 90 1010.1
20220516090632 62 272 0.0 3.0 0.00 0.35 0.35 90 1010.0
20220516090527 62 272 0.0 3.0 0.00 0.35 0.35 90 1009.8
20220516090430 62 272 0.0 3.0 0.00 0.35 0.35 90 1009.8
20220516090330 62 272 0.0 3.0 0.00 0.35 0.35 90 1009.8
20220516090205 62 272 0.0 3.0 0.00 0.35 0.35 90 1009.8
20220516090123 62 337 0.0 0.0 0.00 0.35 0.35 90 1009.8
20220516090025 62 339 0.0 0.0 0.00 0.35 0.35 90 1009.7
20220516085923 62 339 0.0 0.0 0.00 0.35 0.35 90 1009.7
20220516085825 62 339 0.0 0.0 0.00 0.35 0.35 90 1009.7
20220516085721 62 339 0.0 0.0 0.00 0.35 0.35 90 1009.7
20220516085619 62 339 0.0 0.0 0.00 0.35 0.35 90 1009.7
20220516085520 62 339 0.0 0.0 0.00 0.35 0.35 90 1009.7
20220516085420 62 339 0.0 0.0 0.00 0.35 0.35 90 1009.6
20220516085317 62 339 0.0 0.0 0.00 0.35 0.35 90 1009.6
20220516085206 62 339 0.0 0.0 0.00 0.35 0.35 90 1009.7
20220516085111 62 339 0.0 0.0 0.00 0.35 0.35 90 1009.6
20220516085012 62 339 0.0 0.0 0.00 0.35 0.35 90 1009.7
20220516084911 62 339 0.0 0.0 0.00 0.35 0.35 90 1009.7
20220516084812 62 339 0.0 0.0 0.00 0.35 0.35 90 1009.6
20220516084711 62 339 0.0 0.0 0.00 0.35 0.35 90 1009.7
20220516084609 62 339 0.0 0.0 0.00 0.35 0.35 90 1009.6
20220516084507 62 339 0.0 0.0 0.00 0.35 0.35 90 1009.5
20220516084405 62 339 0.0 0.0 0.00 0.35 0.35 90 1009.6
20220516084305 62 339 0.0 0.0 0.00 0.35 0.35 90 1009.6
20220516084208 62 339 0.0 0.0 0.00 0.35 0.35 90 1009.5
20220516084203 62 339 0.0 0.0 0.00 0.35 0.35 90 1009.5
20220516084100 62 339 0.0 1.0 0.00 0.35 0.35 90 1009.6
20220516084000 62 339 0.0 1.0 0.00 0.35 0.35 90 1009.5
20220516083900 62 339 0.0 1.0 0.00 0.35 0.35 90 1009.6
20220516083757 62 339 0.0 1.0 0.00 0.35 0.35 90 1009.6
20220516083700 62 339 0.0 1.0 0.00 0.35 0.35 90 1009.7
20220516083553 62 339 0.0 1.0 0.00 0.35 0.35 90 1009.6
20220516083449 62 339 0.0 1.0 0.00 0.35 0.35 90 1009.6
20220516083349 62 339 0.0 1.0 0.00 0.35 0.35 90 1009.7
20220516083249 62 339 0.0 1.0 0.00 0.35 0.35 90 1009.7
20220516083204 62 339 0.0 1.0 0.00 0.35 0.35 90 1009.7
20220516083147 62 339 0.0 1.0 0.00 0.35 0.35 90 1009.6
20220516083039 62 339 0.0 0.0 0.00 0.35 0.35 90 1009.6
20220516082941 62 339 0.0 0.0 0.00 0.35 0.35 90 1009.6
20220516082839 62 339 0.0 0.0 0.00 0.35 0.35 90 1009.6
20220516082739 62 339 0.0 0.0 0.00 0.35 0.35 90 1009.6
20220516082641 62 339 0.0 0.0 0.00 0.35 0.35 90 1009.5
20220516082539 62 339 0.0 0.0 0.00 0.35 0.35 90 1009.5
20220516082437 62 339 0.0 0.0 0.00 0.35 0.35 90 1009.5
20220516082338 62 339 0.0 0.0 0.00 0.35 0.35 90 1009.5
20220516082237 62 339 0.0 0.0 0.00 0.35 0.35 90 1009.6
20220516082204 62 339 0.0 0.0 0.00 0.35 0.35 90 1009.6
20220516082133 62 339 0.0 0.0 0.00 0.35 0.35 90 1009.6
20220516082033 63 339 0.0 0.0 0.00 0.35 0.35 90 1009.6
20220516081934 62 339 0.0 0.0 0.00 0.35 0.35 90 1009.7
20220516081829 62 339 0.0 0.0 0.00 0.35 0.35 90 1009.7
20220516081729 63 339 0.0 0.0 0.00 0.35 0.35 90 1009.8
20220516081628 62 339 0.0 1.0 0.00 0.35 0.35 90 1010.0
20220516081521 62 339 0.0 1.0 0.00 0.35 0.35 90 1009.8
20220516081421 63 339 0.0 1.0 0.00 0.35 0.35 90 1009.8
20220516081319 63 339 0.0 2.0 0.00 0.35 0.35 90 1010.0
20220516081202 63 339 0.0 2.0 0.00 0.35 0.35 90 1010.0
20220516081123 63 339 0.0 2.0 0.00 0.35 0.35 90 1010.0
20220516081019 63 339 0.0 2.0 0.00 0.35 0.35 90 1010.0
20220516080917 63 339 0.0 2.0 0.00 0.35 0.35 90 1009.8
20220516080820 63 339 0.0 2.0 0.00 0.35 0.35 90 1010.0
20220516080715 63 339 0.0 2.0 0.00 0.35 0.35 90 1009.8
20220516080615 63 339 0.0 2.0 0.00 0.35 0.35 90 1010.0
20220516080513 63 339 0.0 2.0 0.00 0.35 0.35 90 1010.0
20220516080412 63 339 0.0 2.0 0.00 0.35 0.35 90 1010.0
20220516080311 63 339 0.0 1.0 0.00 0.35 0.35 90 1010.0
20220516080202 63 339 0.0 4.0 0.00 0.35 0.35 90 1009.8
20220516080111 63 339 0.0 4.0 0.00 0.35 0.35 90 1009.8
20220516080003 63 339 0.0 4.0 0.00 0.35 0.35 90 1009.8
20220516075901 63 339 0.0 4.0 0.00 0.35 0.35 90 1009.8
20220516075759 63 339 0.0 4.0 0.00 0.35 0.35 90 1010.0
20220516075658 63 339 0.0 4.0 0.00 0.35 0.35 90 1010.0
20220516075557 63 339 0.0 4.0 0.00 0.35 0.35 90 1010.0
20220516075454 63 339 0.0 4.0 0.00 0.35 0.35 90 1010.0
20220516075355 63 339 0.0 4.0 0.00 0.35 0.35 90 1010.0
20220516075255 63 339 0.0 4.0 0.00 0.35 0.35 90 1010.0
20220516075204 63 350 0.0 3.0 0.00 0.35 0.35 90 1010.0
20220516075152 63 350 0.0 3.0 0.00 0.35 0.35 90 1010.0
20220516075050 63 350 0.0 3.0 0.00 0.35 0.35 90 1010.0
20220516074949 63 350 0.0 3.0 0.00 0.35 0.35 90 1010.0
20220516074846 63 350 1.0 3.0 0.00 0.35 0.35 90 1010.0
20220516074747 63 350 1.0 7.0 0.00 0.35 0.35 90 1010.0
20220516074646 63 350 1.0 7.0 0.00 0.35 0.35 90 1009.8
20220516074543 63 350 1.0 7.0 0.00 0.35 0.35 90 1009.8
20220516074441 63 350 1.0 7.0 0.00 0.35 0.35 90 1009.8
20220516074343 63 350 1.0 7.0 0.00 0.35 0.35 90 1009.8
20220516074238 63 285 1.0 7.0 0.00 0.35 0.35 90 1010.0
20220516074205 63 284 1.0 7.0 0.00 0.35 0.35 90 1010.0
20220516074140 63 286 1.0 7.0 0.00 0.35 0.35 90 1010.0
20220516074039 63 286 1.0 7.0 0.00 0.35 0.35 89 1010.0
20220516073934 63 286 1.0 7.0 0.00 0.35 0.35 89 1010.1
20220516073835 63 294 1.0 7.0 0.00 0.35 0.35 90 1010.1
20220516073734 63 15 1.0 7.0 0.00 0.35 0.35 90 1010.1
20220516073632 63 15 1.0 7.0 0.00 0.35 0.35 89 1010.2
20220516073531 63 15 1.0 7.0 0.00 0.35 0.35 89 1010.2
20220516073425 63 15 1.0 7.0 0.00 0.35 0.35 89 1010.2
20220516073328 63 15 1.0 7.0 0.00 0.35 0.35 89 1010.2
20220516073228 63 15 1.0 7.0 0.00 0.35 0.35 89 1010.2
20220516073201 63 18 1.0 7.0 0.00 0.35 0.35 89 1010.2
20220516073126 63 18 1.0 7.0 0.00 0.35 0.35 89 1010.2
20220516073023 63 18 1.0 7.0 0.00 0.35 0.35 89 1010.2
20220516072925 63 18 1.0 7.0 0.00 0.35 0.35 89 1010.3
20220516072821 63 18 1.0 7.0 0.00 0.35 0.35 89 1010.3
20220516072722 63 341 1.0 6.0 0.00 0.35 0.35 89 1010.4
20220516072621 63 341 1.0 6.0 0.00 0.35 0.35 89 1010.4
20220516072517 63 341 1.0 6.0 0.00 0.35 0.35 89 1010.4
20220516072415 63 341 1.0 6.0 0.00 0.35 0.35 89 1010.4
20220516072313 63 333 1.0 6.0 0.00 0.35 0.35 89 1010.4
20220516072211 63 297 1.0 6.0 0.00 0.35 0.35 89 1010.4
20220516072156 63 279 1.0 6.0 0.00 0.35 0.35 89 1010.4
20220516072111 63 6 1.0 6.0 0.00 0.35 0.35 89 1010.4
20220516072010 63 15 1.0 6.0 0.00 0.35 0.35 89 1010.5
20220516071919 63 354 1.0 4.0 0.00 0.35 0.35 89 1010.5
20220516071810 63 340 1.0 4.0 0.00 0.35 0.35 89 1010.5
20220516071710 63 351 1.0 3.0 0.00 0.35 0.35 89 1010.5
20220516071607 63 351 1.0 3.0 0.00 0.35 0.35 89 1010.5
20220516071512 63 1 1.0 3.0 0.00 0.35 0.35 89 1010.5
20220516071405 63 1 1.0 3.0 0.00 0.35 0.35 89 1010.5
20220516071305 63 350 1.0 3.0 0.00 0.35 0.35 89 1010.5
20220516071154 63 350 0.0 3.0 0.00 0.35 0.35 89 1010.5
20220516071101 63 347 0.0 3.0 0.00 0.35 0.35 89 1010.4
20220516071002 63 71 0.0 2.0 0.00 0.35 0.35 89 1010.4
20220516070900 63 297 0.0 2.0 0.00 0.35 0.35 88 1010.4
20220516070757 63 295 0.0 2.0 0.00 0.35 0.35 88 1010.4
20220516070654 63 295 0.0 2.0 0.00 0.35 0.35 88 1010.4
20220516070554 63 295 0.0 2.0 0.00 0.35 0.35 88 1010.4
20220516070456 63 300 0.0 2.0 0.00 0.35 0.35 88 1010.4
20220516070355 63 296 0.0 2.0 0.00 0.35 0.35 88 1010.4
20220516070249 63 296 0.0 2.0 0.00 0.35 0.35 88 1010.4
20220516070151 63 296 0.0 2.0 0.00 0.35 0.35 88 1010.4
20220516070047 63 296 0.0 2.0 0.00 0.35 0.35 88 1010.4
20220516065947 63 296 0.0 2.0 0.00 0.35 0.35 87 1010.4
20220516065852 63 296 0.0 2.0 0.00 0.35 0.35 87 1010.4
20220516065747 63 46 0.0 0.0 0.00 0.35 0.35 87 1010.4
20220516065647 63 46 0.0 0.0 0.00 0.35 0.35 87 1010.3
20220516065544 63 46 0.0 0.0 0.00 0.35 0.35 87 1010.4
20220516065445 63 46 0.0 0.0 0.00 0.35 0.35 87 1010.4
20220516065349 64 46 0.0 0.0 0.00 0.35 0.35 87 1010.4
20220516065244 64 46 0.0 0.0 0.00 0.35 0.35 87 1010.3
20220516065145 64 46 0.0 0.0 0.00 0.35 0.35 87 1010.3
20220516065045 64 46 0.0 0.0 0.00 0.35 0.35 87 1010.3
20220516064945 64 46 0.0 0.0 0.00 0.35 0.35 87 1010.3
20220516064848 64 46 0.0 0.0 0.00 0.35 0.35 87 1010.3
20220516064745 64 46 0.0 0.0 0.00 0.35 0.35 87 1010.2
20220516064643 64 46 0.0 0.0 0.00 0.35 0.35 87 1010.2
20220516064540 64 46 0.0 0.0 0.00 0.35 0.35 86 1010.2
20220516064440 64 46 0.0 0.0 0.00 0.35 0.35 86 1010.2
20220516064340 64 46 0.0 0.0 0.00 0.35 0.35 86 1010.2
20220516064239 64 46 0.0 1.0 0.00 0.35 0.35 86 1010.2
20220516064132 64 46 0.0 1.0 0.00 0.35 0.35 86 1010.2
20220516064032 64 46 0.0 1.0 0.00 0.35 0.35 86 1010.2
20220516063931 64 46 0.0 1.0 0.00 0.35 0.35 86 1010.2
20220516063832 64 46 0.0 1.0 0.00 0.35 0.35 86 1010.1
20220516063733 64 46 0.0 1.0 0.00 0.35 0.35 86 1010.1
20220516063626 64 46 0.0 1.0 0.00 0.35 0.35 86 1010.1
20220516063525 64 46 0.0 1.0 0.00 0.35 0.35 86 1010.1
20220516063422 64 46 0.0 1.0 0.00 0.35 0.35 86 1010.2
20220516063320 64 46 0.0 1.0 0.00 0.35 0.35 86 1010.2
20220516063220 64 46 0.0 1.0 0.00 0.35 0.35 86 1010.2
20220516063154 64 46 0.0 1.0 0.00 0.35 0.35 86 1010.2
20220516063114 64 46 0.0 1.0 0.00 0.35 0.35 86 1010.2
20220516063019 64 49 0.0 1.0 0.00 0.35 0.35 86 1010.2
20220516062913 64 49 0.0 1.0 0.00 0.35 0.35 86 1010.2
20220516062815 64 49 0.0 0.0 0.00 0.35 0.35 86 1010.2
20220516062714 64 49 0.0 0.0 0.00 0.35 0.35 86 1010.2
20220516062614 64 49 0.0 0.0 0.00 0.35 0.35 86 1010.2
20220516062512 64 49 0.0 1.0 0.00 0.35 0.35 86 1010.3
20220516062411 64 49 0.0 2.0 0.00 0.35 0.35 86 1010.3
20220516062313 64 49 0.0 2.0 0.00 0.35 0.35 86 1010.3
20220516062209 64 49 0.0 2.0 0.00 0.35 0.35 86 1010.3
20220516062152 64 49 0.0 2.0 0.00 0.35 0.35 86 1010.3
20220516062105 64 49 0.0 2.0 0.00 0.35 0.35 86 1010.2
20220516062001 64 49 1.0 2.0 0.00 0.35 0.35 86 1010.2
20220516061902 64 49 1.0 3.0 0.01 0.35 0.35 86 1010.3
20220516061759 65 49 1.0 3.0 0.02 0.35 0.35 86 1010.3
20220516061702 65 49 1.0 3.0 0.02 0.35 0.35 86 1010.3
20220516061554 65 49 1.0 3.0 0.02 0.35 0.35 86 1010.2
20220516061453 65 49 0.0 3.0 0.02 0.35 0.35 87 1010.3
20220516061355 65 49 0.0 3.0 0.02 0.35 0.35 87 1010.3
20220516061255 65 49 0.0 3.0 0.02 0.35 0.35 87 1010.3
20220516061153 65 49 0.0 3.0 0.02 0.35 0.35 87 1010.2
20220516061049 65 49 0.0 3.0 0.02 0.35 0.35 87 1010.2
20220516060950 65 228 0.0 3.0 0.02 0.35 0.35 87 1010.2
20220516060849 65 135 0.0 3.0 0.02 0.35 0.35 87 1010.2
20220516060751 65 135 0.0 3.0 0.02 0.35 0.35 87 1010.2
20220516060647 65 135 0.0 3.0 0.02 0.35 0.35 87 1010.2
20220516060547 65 135 0.0 3.0 0.02 0.35 0.35 87 1010.2
20220516060446 65 135 0.0 3.0 0.02 0.35 0.35 87 1010.1
20220516060348 65 140 0.0 3.0 0.02 0.35 0.35 87 1010.0
20220516060247 65 140 0.0 3.0 0.03 0.35 0.35 86 1009.8
20220516060147 65 140 1.0 3.0 0.03 0.35 0.35 86 1010.0
20220516060051 65 140 1.0 3.0 0.03 0.35 0.35 86 1010.1
20220516055947 65 18 1.0 3.0 0.03 0.35 0.35 86 1010.2
20220516055852 65 16 1.0 3.0 0.03 0.35 0.35 86 1010.2
20220516055750 65 16 1.0 3.0 0.04 0.35 0.35 86 1010.4
20220516055648 65 16 1.0 3.0 0.04 0.35 0.35 86 1010.4
20220516055547 65 16 1.0 3.0 0.04 0.35 0.35 86 1010.5
20220516055447 65 16 0.0 3.0 0.04 0.35 0.35 86 1010.5
20220516055346 66 16 0.0 3.0 0.04 0.35 0.35 86 1010.6
20220516055249 66 16 0.0 3.0 0.05 0.35 0.35 86 1010.6
20220516055147 66 16 0.0 2.0 0.05 0.35 0.35 86 1010.6
20220516055050 66 16 0.0 2.0 0.05 0.35 0.35 86 1010.5
20220516054947 66 22 0.0 0.0 0.05 0.35 0.35 86 1010.3
20220516054847 66 22 0.0 0.0 0.06 0.35 0.35 85 1010.2
20220516054749 66 22 0.0 0.0 0.07 0.35 0.35 85 1010.2
20220516054643 66 22 0.0 0.0 0.09 0.35 0.35 85 1010.2
20220516054544 66 22 0.0 0.0 0.15 0.35 0.35 85 1010.2
20220516054443 66 22 0.0 0.0 0.22 0.35 0.35 85 1010.1
20220516054345 66 22 0.0 0.0 0.30 0.35 0.35 85 1010.1
20220516054238 66 22 0.0 0.0 0.34 0.35 0.35 85 1010.2
20220516054138 66 22 0.0 0.0 0.35 0.35 0.35 85 1010.2
20220516054036 66 22 0.0 0.0 0.35 0.35 0.35 85 1010.2
20220516053937 66 22 0.0 0.0 0.35 0.35 0.35 85 1010.2
20220516053836 66 22 0.0 2.0 0.35 0.35 0.35 84 1010.3
20220516053737 66 22 0.0 2.0 0.35 0.35 0.35 84 1010.3
20220516053635 66 22 0.0 2.0 0.35 0.35 0.35 84 1010.3
20220516053536 66 22 0.0 2.0 0.35 0.35 0.35 84 1010.3
20220516053436 67 22 0.0 2.0 0.35 0.35 0.35 84 1010.3
20220516053334 67 22 0.0 2.0 0.35 0.35 0.35 84 1010.3
20220516053231 67 22 0.0 2.0 0.35 0.35 0.35 84 1010.3
20220516053133 67 22 0.0 2.0 0.35 0.35 0.35 84 1010.3
20220516053029 67 22 1.0 2.0 0.35 0.35 0.35 84 1010.2
20220516052928 67 22 1.0 3.0 0.35 0.35 0.35 84 1010.3
20220516052831 67 22 1.0 3.0 0.35 0.35 0.35 84 1010.4
20220516052725 67 22 1.0 3.0 0.35 0.35 0.35 84 1010.4
20220516052625 67 22 1.0 3.0 0.35 0.35 0.35 84 1010.4
20220516052524 67 22 1.0 3.0 0.35 0.35 0.35 84 1010.3
20220516052423 67 22 1.0 3.0 0.35 0.35 0.35 84 1010.3
20220516052325 67 22 1.0 3.0 0.35 0.35 0.35 84 1010.3
20220516052223 67 22 1.0 3.0 0.35 0.35 0.35 84 1010.4
20220516052142 67 22 1.0 3.0 0.35 0.35 0.35 84 1010.5
20220516052119 67 22 0.0 3.0 0.35 0.35 0.35 83 1010.5
20220516052023 67 22 0.0 3.0 0.35 0.35 0.35 83 1010.5
20220516051919 67 23 0.0 2.0 0.34 0.34 0.35 83 1010.5
20220516051820 68 23 0.0 1.0 0.34 0.34 0.34 83 1010.5
20220516051717 68 23 0.0 1.0 0.33 0.33 0.33 83 1010.6
20220516051612 68 23 0.0 1.0 0.33 0.33 0.33 82 1010.7
20220516051514 68 23 0.0 0.0 0.33 0.33 0.33 82 1010.7
20220516051411 68 23 0.0 0.0 0.33 0.33 0.33 82 1010.6
20220516051311 68 23 0.0 0.0 0.33 0.33 0.33 82 1010.5
20220516051212 68 23 0.0 0.0 0.33 0.33 0.33 82 1010.4
20220516051143 68 23 0.0 0.0 0.33 0.33 0.33 82 1010.5
20220516051113 68 23 0.0 0.0 0.33 0.33 0.33 81 1010.5
20220516051005 68 23 0.0 0.0 0.33 0.33 0.33 81 1010.5
20220516050907 68 23 0.0 0.0 0.33 0.33 0.33 81 1010.6
20220516050808 68 23 0.0 1.0 0.33 0.33 0.33 81 1010.7
20220516050706 69 23 0.0 1.0 0.33 0.33 0.33 81 1010.7
20220516050559 69 23 0.0 1.0 0.33 0.33 0.33 81 1010.7
20220516050457 69 23 0.0 1.0 0.33 0.33 0.33 80 1010.8
20220516050357 69 23 0.0 1.0 0.33 0.33 0.33 80 1010.8
20220516050258 69 23 0.0 1.0 0.32 0.32 0.32 80 1010.8
20220516050142 69 23 0.0 2.0 0.32 0.32 0.32 81 1010.7
20220516050058 69 23 0.0 3.0 0.32 0.32 0.32 81 1010.7
20220516045955 69 23 0.0 3.0 0.32 0.32 0.32 80 1010.8
20220516045855 69 23 1.0 3.0 0.32 0.32 0.32 80 1010.8
20220516045755 69 23 1.0 4.0 0.31 0.31 0.32 80 1010.8
20220516045654 69 23 1.0 4.0 0.31 0.31 0.31 80 1010.8
20220516045546 69 23 1.0 4.0 0.31 0.31 0.31 80 1010.7
20220516045447 69 23 2.0 4.0 0.31 0.31 0.31 80 1010.7
20220516045345 69 23 2.0 7.0 0.31 0.31 0.31 80 1010.8
20220516045246 70 23 3.0 11.0 0.30 0.30 0.31 80 1010.8
20220516045145 70 11 3.0 11.0 0.30 0.30 0.30 80 1011.0
20220516045039 70 38 4.0 14.0 0.30 0.30 0.30 80 1011.0
20220516044940 70 39 4.0 14.0 0.29 0.29 0.30 80 1011.1
20220516044840 70 27 5.0 14.0 0.28 0.28 0.29 80 1011.2
20220516044740 70 353 5.0 14.0 0.26 0.26 0.28 79 1011.2
20220516044643 70 338 5.0 14.0 0.26 0.26 0.26 79 1011.4
20220516044535 70 48 5.0 14.0 0.20 0.20 0.20 78 1011.5
20220516044433 71 217 5.0 14.0 0.13 0.13 0.13 77 1011.6
20220516044336 71 55 5.0 14.0 0.05 0.05 0.05 75 1011.6
20220516044235 71 285 5.0 14.0 0.01 0.01 0.02 74 1011.3
20220516044144 71 283 5.0 19.0 0.00 0.00 0.00 73 1011.0
20220516044135 71 219 5.0 19.0 0.00 0.00 0.00 73 1011.0
20220516044031 70 289 6.0 19.0 0.00 0.00 0.00 72 1010.7
20220516043931 70 312 6.0 19.0 0.00 0.00 0.00 72 1010.5
20220516043833 70 282 5.0 19.0 0.00 0.00 0.00 74 1010.3
20220516043729 70 324 5.0 19.0 0.00 0.00 0.00 75 1010.0
20220516043627 70 6 5.0 19.0 0.00 0.00 0.00 76 1010.1
20220516043522 70 100 4.0 19.0 0.00 0.00 0.00 77 1010.1
20220516043421 70 34 4.0 19.0 0.00 0.00 0.00 78 1010.0
20220516043320 69 1 3.0 19.0 0.00 0.00 0.00 78 1010.1
20220516043219 69 329 3.0 19.0 0.00 0.00 0.00 78 1010.1
20220516043144 69 246 2.0 18.0 0.00 0.00 0.00 79 1010.2
20220516043120 69 354 2.0 13.0 0.00 0.00 0.00 79 1010.2
20220516043021 69 131 1.0 9.0 0.00 0.00 0.00 79 1010.1
20220516042919 69 119 0.0 8.0 0.00 0.00 0.00 79 1010.0
20220516042818 69 265 0.0 3.0 0.00 0.00 0.00 79 1009.7
20220516042720 69 209 0.0 2.0 0.00 0.00 0.00 79 1009.6
20220516042620 69 184 0.0 1.0 0.00 0.00 0.00 79 1009.5
20220516042517 69 184 0.0 1.0 0.00 0.00 0.00 79 1009.4
20220516042420 69 184 0.0 1.0 0.00 0.00 0.00 79 1009.3
20220516042321 69 184 0.0 1.0 0.00 0.00 0.00 79 1009.0
20220516042213 69 184 0.0 0.0 0.00 0.00 0.00 79 1008.9
20220516042115 69 184 0.0 0.0 0.00 0.00 0.00 79 1009.0
20220516042011 69 184 0.0 0.0 0.00 0.00 0.00 79 1008.9
20220516041910 69 184 0.0 0.0 0.00 0.00 0.00 79 1008.9
20220516041809 69 184 0.0 0.0 0.00 0.00 0.00 79 1008.9
20220516041706 69 184 0.0 0.0 0.00 0.00 0.00 79 1008.9
20220516041605 69 184 0.0 0.0 0.00 0.00 0.00 79 1008.9
20220516041507 69 184 0.0 0.0 0.00 0.00 0.00 79 1008.9
20220516041406 69 184 0.0 0.0 0.00 0.00 0.00 79 1008.9
20220516041306 69 184 0.0 0.0 0.00 0.00 0.00 79 1008.9
20220516041205 69 184 0.0 0.0 0.00 0.00 0.00 79 1008.9
20220516041141 69 184 0.0 0.0 0.00 0.00 0.00 79 1008.9
20220516041107 69 184 0.0 0.0 0.00 0.00 0.00 79 1008.9
20220516041007 69 184 0.0 0.0 0.00 0.00 0.00 79 1008.9
20220516040906 69 184 0.0 0.0 0.00 0.00 0.00 79 1008.8
20220516040804 69 184 0.0 0.0 0.00 0.00 0.00 79 1008.9
20220516040702 69 184 0.0 0.0 0.00 0.00 0.00 79 1008.9
20220516040603 69 184 0.0 0.0 0.00 0.00 0.00 79 1008.9
20220516040459 69 184 0.0 0.0 0.00 0.00 0.00 78 1008.9
20220516040358 69 184 0.0 0.0 0.00 0.00 0.00 78 1009.0
20220516040256 69 184 0.0 0.0 0.00 0.00 0.00 77 1009.0
20220516040141 69 184 0.0 0.0 0.00 0.00 0.00 77 1009.1
20220516040052 69 184 0.0 0.0 0.00 0.00 0.00 77 1009.1
20220516035953 69 184 0.0 0.0 0.00 0.00 0.00 77 1009.0
20220516035850 69 184 0.0 0.0 0.00 0.00 0.00 77 1008.9
20220516035747 69 184 0.0 0.0 0.00 0.00 0.00 77 1008.9
20220516035648 69 184 0.0 0.0 0.00 0.00 0.00 77 1008.9
20220516035553 69 184 0.0 0.0 0.00 0.00 0.00 78 1008.9
20220516035447 69 184 0.0 0.0 0.00 0.00 0.00 78 1009.0
20220516035350 69 184 0.0 0.0 0.00 0.00 0.00 78 1009.0
20220516035246 69 184 0.0 0.0 0.00 0.00 0.00 78 1009.0
20220516035138 69 184 0.0 0.0 0.00 0.00 0.00 76 1009.0
20220516035047 69 184 0.0 0.0 0.00 0.00 0.00 76 1008.9
20220516034944 69 184 0.0 0.0 0.00 0.00 0.00 76 1008.8
20220516034843 69 184 0.0 0.0 0.00 0.00 0.00 76 1008.8
20220516034741 69 184 0.0 0.0 0.00 0.00 0.00 76 1008.7
20220516034640 69 184 0.0 0.0 0.00 0.00 0.00 76 1008.7
20220516034540 69 184 0.0 0.0 0.00 0.00 0.00 76 1008.7
20220516034435 69 184 0.0 0.0 0.00 0.00 0.00 76 1008.8
20220516034335 69 184 0.0 0.0 0.00 0.00 0.00 76 1008.8
20220516034236 69 184 0.0 0.0 0.00 0.00 0.00 76 1008.8
20220516034136 69 184 0.0 0.0 0.00 0.00 0.00 76 1008.8
20220516034033 69 184 0.0 0.0 0.00 0.00 0.00 76 1008.8
20220516033937 69 184 0.0 0.0 0.00 0.00 0.00 76 1008.8
20220516033833 69 184 0.0 0.0 0.00 0.00 0.00 76 1008.7
20220516033734 69 184 0.0 1.0 0.00 0.00 0.00 76 1008.7
20220516033636 69 184 0.0 1.0 0.00 0.00 0.00 75 1008.6
20220516033534 69 184 0.0 1.0 0.00 0.00 0.00 75 1008.6
20220516033431 69 184 0.0 1.0 0.00 0.00 0.00 75 1008.5
20220516033331 70 184 0.0 1.0 0.00 0.00 0.00 75 1008.5
20220516033230 70 184 0.0 1.0 0.00 0.00 0.00 75 1008.5
20220516033130 70 184 0.0 1.0 0.00 0.00 0.00 75 1008.7
20220516033024 70 184 0.0 1.0 0.00 0.00 0.00 74 1008.8
20220516032921 70 184 0.0 1.0 0.00 0.00 0.00 74 1008.8
20220516032821 70 184 0.0 1.0 0.00 0.00 0.00 74 1008.8
20220516032720 70 184 0.0 1.0 0.00 0.00 0.00 74 1008.9
20220516032619 70 182 0.0 1.0 0.00 0.00 0.00 75 1008.9
20220516032519 70 182 0.0 1.0 0.00 0.00 0.00 75 1008.9
20220516032415 70 182 0.0 1.0 0.00 0.00 0.00 74 1008.9
20220516032317 70 182 0.0 1.0 0.00 0.00 0.00 74 1008.9
20220516032214 70 182 0.0 1.0 0.00 0.00 0.00 74 1008.9
20220516032139 70 182 0.0 1.0 0.00 0.00 0.00 74 1008.9
20220516032112 70 182 0.0 0.0 0.00 0.00 0.00 74 1008.9
20220516032007 70 182 0.0 0.0 0.00 0.00 0.00 74 1008.8
20220516031908 70 182 0.0 0.0 0.00 0.00 0.00 74 1008.8
20220516031807 70 182 0.0 0.0 0.00 0.00 0.00 74 1008.9
20220516031707 70 182 0.0 0.0 0.00 0.00 0.00 74 1009.0
20220516031603 70 182 0.0 0.0 0.00 0.00 0.00 74 1009.0
20220516031504 70 182 0.0 0.0 0.00 0.00 0.00 74 1009.1
20220516031401 70 182 0.0 0.0 0.00 0.00 0.00 74 1009.1
20220516031301 70 182 0.0 0.0 0.00 0.00 0.00 74 1009.1
20220516031138 70 182 0.0 0.0 0.00 0.00 0.00 74 1009.1
20220516031057 70 182 0.0 0.0 0.00 0.00 0.00 74 1009.1
20220516030956 70 182 0.0 0.0 0.00 0.00 0.00 74 1009.1
20220516030853 70 182 0.0 0.0 0.00 0.00 0.00 74 1009.1
20220516030753 70 182 0.0 0.0 0.00 0.00 0.00 73 1009.1
20220516030651 70 182 0.0 0.0 0.00 0.00 0.00 73 1009.1
20220516030549 70 182 0.0 0.0 0.00 0.00 0.00 73 1009.1
20220516030449 70 182 0.0 0.0 0.00 0.00 0.00 73 1009.1
20220516030346 70 182 0.0 0.0 0.00 0.00 0.00 73 1009.2
20220516030247 71 182 0.0 0.0 0.00 0.00 0.00 73 1009.1
20220516030136 71 182 0.0 0.0 0.00 0.00 0.00 73 1009.2
20220516030042 71 182 0.0 0.0 0.00 0.00 0.00 73 1009.1
20220516025944 71 182 0.0 0.0 0.00 0.00 0.00 73 1009.2
20220516025839 71 182 0.0 0.0 0.00 0.00 0.00 73 1009.2
20220516025740 71 182 0.0 0.0 0.00 0.00 0.00 73 1009.2
20220516025639 71 182 0.0 0.0 0.00 0.00 0.00 73 1009.3
20220516025533 71 182 0.0 0.0 0.00 0.00 0.00 73 1009.3
20220516025430 71 182 0.0 0.0 0.00 0.00 0.00 73 1009.3
20220516025327 71 182 0.0 0.0 0.00 0.00 0.00 73 1009.3
20220516025227 71 182 0.0 0.0 0.00 0.00 0.00 73 1009.3
20220516025128 71 182 0.0 0.0 0.00 0.00 0.00 73 1009.3
20220516025025 71 182 0.0 0.0 0.00 0.00 0.00 73 1009.4
20220516024929 71 182 0.0 0.0 0.00 0.00 0.00 73 1009.4
20220516024825 71 182 0.0 0.0 0.00 0.00 0.00 73 1009.4
20220516024723 71 182 0.0 0.0 0.00 0.00 0.00 73 1009.4
20220516024623 71 182 0.0 0.0 0.00 0.00 0.00 73 1009.3
20220516024520 71 182 0.0 0.0 0.00 0.00 0.00 73 1009.4
20220516024413 71 182 0.0 0.0 0.00 0.00 0.00 72 1009.3
20220516024314 71 182 0.0 0.0 0.00 0.00 0.00 72 1009.4
20220516024211 71 182 0.0 0.0 0.00 0.00 0.00 72 1009.4
20220516024113 71 182 0.0 0.0 0.00 0.00 0.00 72 1009.5
20220516024011 71 182 0.0 0.0 0.00 0.00 0.00 72 1009.4
20220516023909 71 182 0.0 0.0 0.00 0.00 0.00 72 1009.4
20220516023805 71 182 0.0 0.0 0.00 0.00 0.00 71 1009.5
20220516023705 71 182 0.0 0.0 0.00 0.00 0.00 71 1009.5
20220516023602 71 181 0.0 0.0 0.00 0.00 0.00 72 1009.4
20220516023506 71 181 0.0 1.0 0.00 0.00 0.00 72 1009.4
20220516023355 71 181 0.0 1.0 0.00 0.00 0.00 71 1009.3
20220516023256 71 181 0.0 1.0 0.00 0.00 0.00 71 1009.3
20220516023134 71 181 0.0 1.0 0.00 0.00 0.00 71 1009.3
20220516023059 71 181 0.0 1.0 0.00 0.00 0.00 71 1009.3
20220516022956 72 181 0.0 1.0 0.00 0.00 0.00 71 1009.3
20220516022856 72 181 0.0 1.0 0.00 0.00 0.00 71 1009.3
20220516022754 72 181 0.0 1.0 0.00 0.00 0.00 71 1009.4
20220516022654 72 181 0.0 1.0 0.00 0.00 0.00 71 1009.3
20220516022552 72 181 0.0 1.0 0.00 0.00 0.00 71 1009.3
20220516022450 72 181 0.0 0.0 0.00 0.00 0.00 71 1009.3
20220516022345 72 181 0.0 0.0 0.00 0.00 0.00 71 1009.3
20220516022244 72 181 0.0 0.0 0.00 0.00 0.00 71 1009.4
20220516022130 72 181 0.0 0.0 0.00 0.00 0.00 71 1009.4
20220516022044 72 181 0.0 0.0 0.00 0.00 0.00 71 1009.4
20220516021945 72 181 0.0 0.0 0.00 0.00 0.00 71 1009.4
20220516021837 72 181 0.0 0.0 0.00 0.00 0.00 70 1009.4
20220516021738 72 181 0.0 0.0 0.00 0.00 0.00 71 1009.4
20220516021638 72 181 0.0 0.0 0.00 0.00 0.00 71 1009.4
20220516021537 72 181 0.0 0.0 0.00 0.00 0.00 70 1009.4
20220516021434 72 181 0.0 0.0 0.00 0.00 0.00 70 1009.4
20220516021333 72 181 0.0 0.0 0.00 0.00 0.00 70 1009.4
20220516021231 72 181 0.0 0.0 0.00 0.00 0.00 70 1009.4
20220516021131 72 181 0.0 0.0 0.00 0.00 0.00 71 1009.4
20220516021029 73 181 0.0 0.0 0.00 0.00 0.00 70 1009.4
20220516020929 73 181 0.0 0.0 0.00 0.00 0.00 70 1009.4
20220516020827 73 181 0.0 0.0 0.00 0.00 0.00 70 1009.4
20220516020727 73 181 0.0 0.0 0.00 0.00 0.00 70 1009.3
20220516020626 73 181 0.0 1.0 0.00 0.00 0.00 70 1009.3
20220516020524 73 181 0.0 1.0 0.00 0.00 0.00 70 1009.3
20220516020423 73 181 0.0 1.0 0.00 0.00 0.00 70 1009.3
20220516020317 73 181 0.0 1.0 0.00 0.00 0.00 69 1009.3
20220516020214 73 181 0.0 1.0 0.00 0.00 0.00 69 1009.3
20220516020113 73 181 0.0 1.0 0.00 0.00 0.00 69 1009.3
20220516020015 73 181 0.0 1.0 0.00 0.00 0.00 69 1009.3
20220516015912 73 181 0.0 1.0 0.00 0.00 0.00 69 1009.3
20220516015813 73 181 0.0 1.0 0.00 0.00 0.00 69 1009.3
20220516015707 73 181 0.0 1.0 0.00 0.00 0.00 69 1009.2
20220516015609 73 181 0.0 1.0 0.00 0.00 0.00 69 1009.3
20220516015506 73 181 0.0 1.0 0.00 0.00 0.00 69 1009.3
20220516015404 73 181 0.0 1.0 0.00 0.00 0.00 69 1009.2
20220516015305 74 181 0.0 1.0 0.00 0.00 0.00 69 1009.2
20220516015204 74 181 0.0 1.0 0.00 0.00 0.00 68 1009.2
20220516015126 74 181 0.0 1.0 0.00 0.00 0.00 68 1009.2
20220516015059 74 181 0.0 1.0 0.00 0.00 0.00 68 1009.2
20220516015001 74 181 0.0 1.0 0.00 0.00 0.00 68 1009.2
20220516014902 74 181 0.0 1.0 0.00 0.00 0.00 68 1009.3
20220516014756 74 181 0.0 1.0 0.00 0.00 0.00 68 1009.3
20220516014657 74 181 0.0 1.0 0.00 0.00 0.00 68 1009.3
20220516014556 74 181 0.0 0.0 0.00 0.00 0.00 68 1009.3
20220516014452 74 181 0.0 0.0 0.00 0.00 0.00 68 1009.3
20220516014350 74 181 0.0 0.0 0.00 0.00 0.00 68 1009.3
20220516014243 74 181 0.0 0.0 0.00 0.00 0.00 68 1009.4
20220516014126 74 181 0.0 1.0 0.00 0.00 0.00 68 1009.3
20220516014045 74 181 0.0 1.0 0.00 0.00 0.00 68 1009.3
20220516013942 74 181 0.0 1.0 0.00 0.00 0.00 68 1009.3
20220516013843 74 181 0.0 1.0 0.00 0.00 0.00 68 1009.3
20220516013741 74 181 0.0 1.0 0.00 0.00 0.00 67 1009.3
20220516013640 74 181 0.0 1.0 0.00 0.00 0.00 67 1009.3
20220516013540 74 181 0.0 1.0 0.00 0.00 0.00 67 1009.2
20220516013438 74 181 0.0 1.0 0.00 0.00 0.00 67 1009.2
20220516013336 74 181 0.0 1.0 0.00 0.00 0.00 67 1009.2
20220516013232 75 181 0.0 1.0 0.00 0.00 0.00 67 1009.3
20220516013125 75 181 0.0 0.0 0.00 0.00 0.00 67 1009.3
20220516013031 75 181 0.0 0.0 0.00 0.00 0.00 67 1009.4
20220516012927 75 181 0.0 0.0 0.00 0.00 0.00 67 1009.3
20220516012831 75 181 0.0 0.0 0.00 0.00 0.00 67 1009.3
20220516012724 75 181 0.0 0.0 0.00 0.00 0.00 67 1009.3
20220516012624 75 181 0.0 0.0 0.00 0.00 0.00 67 1009.4
20220516012525 75 181 0.0 0.0 0.00 0.00 0.00 67 1009.3
20220516012422 75 181 0.0 0.0 0.00 0.00 0.00 67 1009.3
20220516012319 76 181 0.0 0.0 0.00 0.00 0.00 67 1009.3
20220516012215 76 181 0.0 0.0 0.00 0.00 0.00 67 1009.3
20220516012117 76 181 0.0 0.0 0.00 0.00 0.00 67 1009.3
20220516012015 76 181 0.0 0.0 0.00 0.00 0.00 67 1009.4
20220516011917 76 181 0.0 0.0 0.00 0.00 0.00 67 1009.4
20220516011815 76 181 0.0 0.0 0.00 0.00 0.00 67 1009.4
20220516011706 76 181 0.0 0.0 0.00 0.00 0.00 67 1009.4
20220516011605 76 181 0.0 0.0 0.00 0.00 0.00 67 1009.5
20220516011508 76 181 0.0 0.0 0.00 0.00 0.00 67 1009.5
20220516011405 76 181 0.0 0.0 0.00 0.00 0.00 67 1009.5
20220516011310 76 181 0.0 0.0 0.00 0.00 0.00 67 1009.6
20220516011205 76 181 0.0 0.0 0.00 0.00 0.00 67 1009.5
20220516011105 76 181 0.0 0.0 0.00 0.00 0.00 67 1009.5
20220516011000 76 181 0.0 0.0 0.00 0.00 0.00 67 1009.5
20220516010858 76 181 0.0 0.0 0.00 0.00 0.00 67 1009.5
20220516010756 77 181 0.0 0.0 0.00 0.00 0.00 66 1009.5
20220516010651 77 181 0.0 0.0 0.00 0.00 0.00 66 1009.5
20220516010549 77 181 0.0 0.0 0.00 0.00 0.00 65 1009.5
20220516010451 77 181 0.0 0.0 0.00 0.00 0.00 65 1009.6
20220516010349 77 181 0.0 0.0 0.00 0.00 0.00 65 1009.6
20220516010252 77 181 0.0 0.0 0.00 0.00 0.00 65 1009.6
20220516010147 77 181 0.0 1.0 0.00 0.00 0.00 65 1009.5
20220516010113 77 181 0.0 1.0 0.00 0.00 0.00 65 1009.5
20220516010043 77 181 0.0 1.0 0.00 0.00 0.00 65 1009.6
20220516005944 77 181 0.0 1.0 0.00 0.00 0.00 64 1009.5
20220516005846 77 181 0.0 1.0 0.00 0.00 0.00 64 1009.6
20220516005747 77 181 0.0 1.0 0.00 0.00 0.00 64 1009.6
20220516005643 78 181 0.0 1.0 0.00 0.00 0.00 64 1009.5
20220516005541 78 181 0.0 1.0 0.00 0.00 0.00 64 1009.5
20220516005441 78 181 0.0 1.0 0.00 0.00 0.00 64 1009.5
20220516005341 78 181 0.0 1.0 0.00 0.00 0.00 64 1009.5
20220516005237 78 181 0.0 0.0 0.00 0.00 0.00 64 1009.5
20220516005113 78 181 0.0 0.0 0.00 0.00 0.00 64 1009.5
20220516005035 78 181 0.0 0.0 0.00 0.00 0.00 64 1009.6
20220516004934 78 181 0.0 0.0 0.00 0.00 0.00 64 1009.5
20220516004835 78 181 0.0 1.0 0.00 0.00 0.00 63 1009.5
20220516004733 78 181 0.0 1.0 0.00 0.00 0.00 63 1009.5
20220516004638 78 181 0.0 2.0 0.00 0.00 0.00 63 1009.5
20220516004533 78 181 0.0 2.0 0.00 0.00 0.00 63 1009.5
20220516004433 78 181 1.0 2.0 0.00 0.00 0.00 63 1009.5
20220516004333 78 181 1.0 2.0 0.00 0.00 0.00 63 1009.5
20220516004231 78 181 1.0 2.0 0.00 0.00 0.00 63 1009.5
20220516004132 79 181 1.0 2.0 0.00 0.00 0.00 63 1009.5
20220516004109 78 181 1.0 2.0 0.00 0.00 0.00 63 1009.5
20220516004028 79 181 1.0 2.0 0.00 0.00 0.00 63 1009.4
20220516003927 79 181 1.0 2.0 0.00 0.00 0.00 63 1009.4
20220516003828 79 181 1.0 2.0 0.00 0.00 0.00 63 1009.3
20220516003727 79 181 1.0 2.0 0.00 0.00 0.00 62 1009.4
20220516003630 79 181 1.0 2.0 0.00 0.00 0.00 62 1009.4
20220516003523 79 181 0.0 2.0 0.00 0.00 0.00 62 1009.3
20220516003423 79 181 0.0 2.0 0.00 0.00 0.00 62 1009.4
20220516003322 79 181 0.0 2.0 0.00 0.00 0.00 62 1009.4
20220516003221 79 181 0.0 2.0 0.00 0.00 0.00 62 1009.3
20220516003110 80 181 0.0 2.0 0.00 0.00 0.00 62 1009.3
20220516003018 80 181 0.0 2.0 0.00 0.00 0.00 61 1009.3
20220516002918 80 181 0.0 2.0 0.00 0.00 0.00 61 1009.3
20220516002815 80 181 0.0 2.0 0.00 0.00 0.00 61 1009.3
20220516002715 80 181 0.0 2.0 0.00 0.00 0.00 61 1009.3
20220516002613 80 181 0.0 2.0 0.00 0.00 0.00 61 1009.3
20220516002513 80 181 0.0 2.0 0.00 0.00 0.00 61 1009.2
20220516002415 80 181 0.0 2.0 0.00 0.00 0.00 60 1009.3
20220516002311 80 181 0.0 2.0 0.00 0.00 0.00 60 1009.4
20220516002211 80 181 0.0 1.0 0.00 0.00 0.00 60 1009.3
20220516002109 80 181 0.0 2.0 0.00 0.00 0.00 60 1009.3
20220516002013 80 181 1.0 3.0 0.00 0.00 0.00 60 1009.4
20220516001905 80 181 1.0 3.0 0.00 0.00 0.00 60 1009.4
20220516001801 80 181 1.0 3.0 0.00 0.00 0.00 60 1009.3
20220516001704 80 181 1.0 3.0 0.00 0.00 0.00 59 1009.3
20220516001603 80 181 1.0 3.0 0.00 0.00 0.00 59 1009.2
20220516001502 80 181 1.0 3.0 0.00 0.00 0.00 59 1009.2
20220516001403 80 181 1.0 3.0 0.00 0.00 0.00 59 1009.2
20220516001300 80 181 1.0 3.0 0.00 0.00 0.00 58 1009.2
20220516001200 80 181 1.0 3.0 0.00 0.00 0.00 58 1009.3
20220516001110 80 181 1.0 3.0 0.00 0.00 0.00 58 1009.3
20220516001057 80 181 1.0 3.0 0.00 0.00 0.00 58 1009.3
20220516000957 81 184 1.0 3.0 0.00 0.00 0.00 58 1009.3
20220516000851 81 185 0.0 3.0 0.00 0.00 0.00 58 1009.3
20220516000750 81 188 0.0 3.0 0.00 0.00 0.00 58 1009.4
20220516000651 81 192 0.0 1.0 0.00 0.00 0.00 58 1009.3
20220516000550 81 192 0.0 2.0 0.00 0.00 0.00 58 1009.3
20220516000452 81 192 0.0 2.0 0.00 0.00 0.00 58 1009.3
20220516000346 81 191 0.0 2.0 0.00 0.00 0.00 58 1009.2
20220516000247 81 191 0.0 2.0 0.00 0.00 0.00 58 1009.2
20220516000145 81 191 0.0 2.0 0.00 0.00 0.00 58 1009.3
20220516000108 81 191 0.0 2.0 0.00 0.00 0.00 57 1009.3
20220516000048 81 191 0.0 2.0 0.00 0.00 0.00 57 1009.3
20220515235943 81 191 1.0 2.0 0.00 0.00 0.00 57 1009.3
20220515235837 81 191 1.0 2.0 0.00 0.00 0.00 57 1009.3
20220515235741 81 191 1.0 2.0 0.00 0.00 0.00 57 1009.3
20220515235636 81 191 1.0 2.0 0.00 0.00 0.00 57 1009.3
20220515235536 81 191 1.0 2.0 0.00 0.00 0.00 57 1009.3
20220515235436 81 191 1.0 2.0 0.00 0.00 0.00 56 1009.3
20220515235332 81 191 1.0 3.0 0.00 0.00 0.00 56 1009.3
20220515235229 81 191 1.0 3.0 0.00 0.00 0.00 56 1009.4
20220515235130 81 191 1.0 3.0 0.00 0.00 0.00 56 1009.4
20220515235111 81 191 1.0 3.0 0.00 0.00 0.00 56 1009.4
20220515235031 81 191 1.0 3.0 0.00 0.00 0.00 55 1009.3
20220515234930 81 191 1.0 3.0 0.00 0.00 0.00 55 1009.3
20220515234828 82 196 0.0 3.0 0.00 0.00 0.00 55 1009.3
20220515234729 82 197 0.0 3.0 0.00 0.00 0.00 55 1009.3
20220515234626 82 197 0.0 3.0 0.00 0.00 0.00 55 1009.3
20220515234524 82 211 0.0 3.0 0.00 0.00 0.00 55 1009.4
20220515234423 82 213 0.0 2.0 0.00 0.00 0.00 54 1009.3
20220515234322 82 219 0.0 1.0 0.00 0.00 0.00 54 1009.3
20220515234222 82 219 0.0 1.0 0.00 0.00 0.00 54 1009.3
20220515234107 82 219 0.0 0.0 0.00 0.00 0.00 54 1009.2
20220515234017 82 219 0.0 0.0 0.00 0.00 0.00 54 1009.2
20220515233918 82 219 0.0 0.0 0.00 0.00 0.00 54 1009.3
20220515233817 82 219 0.0 1.0 0.00 0.00 0.00 54 1009.3
20220515233715 82 219 0.0 1.0 0.00 0.00 0.00 54 1009.2
20220515233614 82 219 0.0 1.0 0.00 0.00 0.00 53 1009.3
20220515233514 82 219 0.0 1.0 0.00 0.00 0.00 53 1009.3
20220515233410 82 219 0.0 1.0 0.00 0.00 0.00 53 1009.3
20220515233305 82 219 0.0 1.0 0.00 0.00 0.00 52 1009.3
20220515233206 82 219 0.0 1.0 0.00 0.00 0.00 53 1009.3
20220515233110 82 219 0.0 1.0 0.00 0.00 0.00 53 1009.4
20220515233104 82 219 0.0 1.0 0.00 0.00 0.00 53 1009.4
20220515233002 82 219 0.0 1.0 0.00 0.00 0.00 52 1009.3
20220515232904 82 219 0.0 1.0 0.00 0.00 0.00 53 1009.4
20220515232805 82 219 0.0 1.0 0.00 0.00 0.00 52 1009.4
20220515232700 82 219 0.0 1.0 0.00 0.00 0.00 52 1009.4
20220515232559 82 219 0.0 1.0 0.00 0.00 0.00 52 1009.4
20220515232456 82 219 0.0 1.0 0.00 0.00 0.00 52 1009.4
20220515232356 82 211 0.0 1.0 0.00 0.00 0.00 53 1009.4
20220515232257 82 211 0.0 1.0 0.00 0.00 0.00 52 1009.4
20220515232153 81 208 0.0 1.0 0.00 0.01 0.00 52 1009.4
20220515232106 81 208 0.0 1.0 0.00 0.01 0.00 52 1009.4
20220515232053 81 208 0.0 1.0 0.00 0.01 0.00 52 1009.4
20220515231951 81 208 0.0 1.0 0.00 0.01 0.00 52 1009.4
20220515231849 81 208 0.0 1.0 0.00 0.01 0.00 54 1009.5
20220515231743 81 208 0.0 1.0 0.00 0.01 0.00 53 1009.4
20220515231648 81 208 0.0 1.0 0.00 0.01 0.00 53 1009.4
20220515231544 82 208 0.0 1.0 0.00 0.01 0.00 52 1009.4
20220515231444 82 208 0.0 1.0 0.00 0.01 0.00 51 1009.4
20220515231347 82 204 0.0 1.0 0.00 0.01 0.00 50 1009.4
20220515231242 82 204 0.0 1.0 0.00 0.01 0.00 51 1009.4
20220515231139 82 204 0.0 1.0 0.00 0.01 0.00 50 1009.4
20220515231108 82 204 0.0 1.0 0.00 0.01 0.00 50 1009.4
20220515231040 82 204 0.0 1.0 0.00 0.01 0.00 50 1009.4
20220515230936 82 204 0.0 2.0 0.00 0.01 0.00 51 1009.5
20220515230836 82 204 0.0 2.0 0.00 0.01 0.00 49 1009.4
20220515230739 82 204 0.0 2.0 0.00 0.01 0.00 49 1009.4
20220515230633 82 204 0.0 2.0 0.00 0.01 0.00 50 1009.4
20220515230533 82 204 0.0 2.0 0.00 0.01 0.00 51 1009.5
20220515230437 82 204 0.0 2.0 0.00 0.02 0.00 52 1009.5
20220515230333 82 204 0.0 2.0 0.00 0.02 0.00 51 1009.4
20220515230227 82 204 0.0 2.0 0.00 0.02 0.00 52 1009.5
20220515230125 82 204 0.0 2.0 0.00 0.02 0.00 52 1009.5
20220515230106 82 204 0.0 2.0 0.00 0.02 0.00 54 1009.5
20220515230024 82 204 0.0 2.0 0.00 0.02 0.00 55 1009.5
20220515225924 82 204 0.0 2.0 0.00 0.02 0.00 51 1009.5
20220515225824 83 204 0.0 1.0 0.00 0.02 0.00 52 1009.5
20220515225723 83 204 0.0 1.0 0.00 0.02 0.00 50 1009.5
20220515225624 83 204 0.0 1.0 0.00 0.02 0.00 48 1009.5
20220515225523 83 204 0.0 1.0 0.00 0.03 0.00 49 1009.5
20220515225422 83 204 0.0 1.0 0.00 0.03 0.00 49 1009.5
20220515225324 83 204 0.0 1.0 0.00 0.03 0.00 48 1009.5
20220515225218 83 204 0.0 2.0 0.00 0.03 0.00 48 1009.5
20220515225116 83 204 0.0 2.0 0.00 0.03 0.00 47 1009.5
20220515225107 83 204 0.0 2.0 0.00 0.03 0.00 48 1009.5
20220515225015 83 204 0.0 2.0 0.00 0.03 0.00 47 1009.5
20220515224914 83 204 0.0 2.0 0.00 0.03 0.00 46 1009.4
20220515224815 83 204 0.0 2.0 0.00 0.03 0.00 46 1009.4
20220515224713 83 171 1.0 4.0 0.00 0.03 0.00 47 1009.4
20220515224610 83 171 1.0 4.0 0.00 0.03 0.00 47 1009.4
20220515224508 83 171 1.0 4.0 0.00 0.03 0.00 45 1009.5
20220515224404 83 171 1.0 4.0 0.00 0.03 0.00 46 1009.5
20220515224303 83 171 1.0 4.0 0.00 0.03 0.00 47 1009.4
20220515224204 83 171 1.0 4.0 0.00 0.03 0.00 46 1009.5
20220515224110 83 167 1.0 4.0 0.00 0.03 0.00 46 1009.5
20220515224102 83 167 1.0 4.0 0.00 0.03 0.00 46 1009.5
20220515223959 83 167 1.0 4.0 0.00 0.03 0.00 45 1009.5
20220515223858 83 167 1.0 4.0 0.00 0.03 0.00 45 1009.5
20220515223756 83 165 1.0 4.0 0.00 0.03 0.00 46 1009.5
20220515223650 83 257 1.0 4.0 0.00 0.03 0.00 45 1009.5
20220515223550 83 258 1.0 4.0 0.00 0.03 0.00 45 1009.5
20220515223449 83 163 1.0 4.0 0.00 0.03 0.00 44 1009.5
20220515223349 83 157 1.0 4.0 0.00 0.03 0.00 44 1009.5
20220515223250 83 153 0.0 4.0 0.00 0.04 0.00 45 1009.5
20220515223151 83 184 0.0 2.0 0.00 0.04 0.00 46 1009.5
20220515223107 83 186 0.0 2.0 0.00 0.04 0.00 48 1009.5
20220515223047 83 186 0.0 2.0 0.00 0.04 0.00 48 1009.5
20220515222948 83 186 0.0 3.0 0.00 0.04 0.00 46 1009.5
20220515222847 83 186 0.0 3.0 0.00 0.04 0.00 46 1009.5
20220515222747 83 186 1.0 3.0 0.00 0.04 0.00 46 1009.5
20220515222648 83 186 1.0 3.0 0.00 0.04 0.00 45 1009.5
20220515222545 84 186 1.0 3.0 0.00 0.04 0.00 43 1009.5
20220515222446 84 186 1.0 3.0 0.00 0.04 0.00 42 1009.5
20220515222346 84 208 1.0 3.0 0.00 0.04 0.00 43 1009.5
20220515222248 84 208 1.0 3.0 0.00 0.04 0.00 43 1009.5
20220515222145 84 208 1.0 3.0 0.00 0.04 0.00 41 1009.4
20220515222104 84 209 1.0 3.0 0.00 0.04 0.00 42 1009.4
20220515222047 84 209 1.0 3.0 0.00 0.04 0.00 42 1009.5
20220515221947 84 221 1.0 3.0 0.00 0.04 0.00 42 1009.5
20220515221846 84 290 1.0 3.0 0.00 0.05 0.00 43 1009.6
20220515221745 84 289 1.0 3.0 0.00 0.05 0.00 42 1009.6
20220515221646 84 289 1.0 3.0 0.00 0.05 0.00 43 1009.7
20220515221546 84 289 1.0 3.0 0.00 0.05 0.00 40 1009.8
20220515221439 85 292 1.0 3.0 0.00 0.05 0.00 41 1010.0
20220515221340 85 287 1.0 3.0 0.00 0.05 0.00 43 1010.0
20220515221242 85 291 1.0 3.0 0.00 0.05 0.00 41 1010.1
20220515221141 85 291 1.0 3.0 0.00 0.05 0.00 42 1010.1
20220515221102 85 296 1.0 3.0 0.00 0.05 0.00 42 1010.1
20220515221039 85 295 1.0 3.0 0.00 0.05 0.00 43 1010.0
20220515220936 85 296 1.0 3.0 0.00 0.05 0.00 42 1010.0
20220515220833 85 278 1.0 3.0 0.00 0.05 0.00 43 1010.0
20220515220735 85 255 1.0 3.0 0.00 0.05 0.00 42 1010.0
20220515220633 85 234 1.0 3.0 0.00 0.05 0.00 40 1009.8
20220515220533 85 181 1.0 3.0 0.00 0.05 0.00 41 1009.8
20220515220427 85 179 1.0 3.0 0.00 0.05 0.00 42 1009.8
20220515220330 86 173 1.0 3.0 0.00 0.05 0.00 41 1009.8
20220515220230 85 208 1.0 3.0 0.00 0.05 0.00 39 1009.8
20220515220127 85 208 0.0 3.0 0.00 0.05 0.00 44 1009.8
20220515220103 85 204 0.0 3.0 0.00 0.05 0.00 44 1009.8
20220515220026 85 194 0.0 2.0 0.00 0.05 0.00 44 1009.8
20220515215922 85 191 0.0 2.0 0.00 0.05 0.00 43 1009.8
20220515215821 85 192 0.0 2.0 0.00 0.05 0.00 42 1009.7
20220515215721 85 190 0.0 2.0 0.00 0.05 0.00 42 1009.7
20220515215622 85 190 0.0 2.0 0.00 0.05 0.00 42 1009.7
20220515215521 84 191 0.0 2.0 0.00 0.05 0.00 43 1009.7
20220515215424 84 173 0.0 2.0 0.00 0.05 0.00 46 1009.8
20220515215322 84 171 0.0 2.0 0.00 0.05 0.00 47 1009.7
20220515215223 84 171 0.0 2.0 0.00 0.05 0.00 46 1009.8
20220515215123 84 171 0.0 2.0 0.00 0.05 0.00 45 1009.8
20220515215058 84 171 0.0 2.0 0.00 0.05 0.00 45 1009.8
20220515215017 84 152 0.0 2.0 0.00 0.05 0.00 45 1009.8
20220515214917 84 152 1.0 3.0 0.00 0.05 0.00 44 1009.8
20220515214817 84 151 1.0 4.0 0.00 0.05 0.00 44 1009.8
20220515214714 84 151 1.0 4.0 0.00 0.05 0.00 43 1009.8
20220515214615 84 151 1.0 4.0 0.00 0.05 0.00 46 1009.8
20220515214514 84 151 1.0 4.0 0.00 0.05 0.00 46 1009.8
20220515214409 84 151 1.0 4.0 0.00 0.05 0.00 45 1009.8
20220515214307 84 151 2.0 4.0 0.00 0.05 0.00 43 1009.8
20220515214206 84 151 2.0 4.0 0.00 0.05 0.00 43 1009.8
20220515214106 84 151 2.0 4.0 0.00 0.05 0.00 43 1009.8
20220515214058 84 151 2.0 4.0 0.00 0.05 0.00 43 1009.8
20220515214006 84 151 2.0 4.0 0.00 0.05 0.00 42 1009.8
20220515213905 84 151 2.0 4.0 0.00 0.05 0.00 44 1010.0
20220515213805 85 190 1.0 5.0 0.00 0.05 0.00 44 1010.0
20220515213709 85 211 1.0 5.0 0.00 0.05 0.00 42 1010.0
20220515213606 85 164 1.0 5.0 0.00 0.05 0.00 42 1010.1
20220515213509 85 164 1.0 5.0 0.00 0.05 0.00 42 1010.1
20220515213408 85 164 1.0 5.0 0.00 0.05 0.00 43 1010.2
20220515213303 85 164 1.0 5.0 0.00 0.05 0.00 43 1010.1
20220515213203 85 165 1.0 5.0 0.00 0.05 0.00 43 1010.2
20220515213057 85 165 1.0 5.0 0.00 0.05 0.00 42 1010.2
20220515213006 85 156 1.0 5.0 0.00 0.05 0.00 42 1010.2
20220515212902 86 151 1.0 5.0 0.00 0.05 0.00 45 1010.3
20220515212805 86 312 1.0 4.0 0.00 0.05 0.00 47 1010.3
20220515212704 86 312 1.0 4.0 0.00 0.05 0.00 44 1010.4
20220515212559 86 315 1.0 4.0 0.00 0.05 0.00 42 1010.4
20220515212459 86 320 1.0 4.0 0.00 0.05 0.00 42 1010.4
20220515212359 86 320 1.0 4.0 0.00 0.05 0.00 41 1010.4
20220515212256 86 320 1.0 4.0 0.00 0.05 0.00 41 1010.5
20220515212153 86 320 1.0 4.0 0.00 0.05 0.00 42 1010.5
20220515212057 86 269 1.0 3.0 0.00 0.05 0.00 44 1010.5
20220515212051 86 254 1.0 3.0 0.00 0.05 0.00 44 1010.5
20220515211952 86 185 1.0 3.0 0.00 0.05 0.00 44 1010.5
20220515211849 86 184 1.0 3.0 0.00 0.05 0.00 43 1010.5
20220515211753 86 184 1.0 3.0 0.00 0.05 0.00 42 1010.6
20220515211648 86 336 1.0 3.0 0.00 0.05 0.00 45 1010.6
20220515211547 86 333 1.0 3.0 0.00 0.05 0.00 44 1010.6
20220515211445 86 333 1.0 3.0 0.00 0.05 0.00 47 1010.6
20220515211344 86 334 1.0 3.0 0.00 0.05 0.00 44 1010.7
20220515211244 85 336 1.0 3.0 0.00 0.05 0.00 43 1010.7
20220515211138 85 240 1.0 3.0 0.00 0.05 0.00 43 1010.7
20220515211059 85 213 1.0 3.0 0.00 0.05 0.00 42 1010.7
20220515211036 85 241 1.0 3.0 0.00 0.05 0.00 42 1010.7
20220515210937 85 155 1.0 3.0 0.00 0.05 0.00 44 1010.7
20220515210835 85 155 1.0 3.0 0.00 0.05 0.00 41 1010.7
20220515210739 86 156 1.0 3.0 0.00 0.05 0.00 42 1010.8
20220515210631 86 192 1.0 3.0 0.00 0.05 0.00 42 1010.8
20220515210530 86 192 1.0 4.0 0.00 0.05 0.00 40 1010.8
20220515210432 85 192 2.0 6.0 0.00 0.05 0.00 42 1010.8
20220515210329 85 192 2.0 7.0 0.00 0.05 0.00 40 1010.8
20220515210233 85 164 2.0 7.0 0.00 0.05 0.00 42 1010.9
20220515210128 85 155 2.0 8.0 0.00 0.05 0.00 41 1010.8
20220515210053 85 178 2.0 8.0 0.00 0.05 0.00 43 1010.8
20220515210023 85 123 2.0 8.0 0.00 0.05 0.00 43 1010.8
20220515205923 86 119 2.0 8.0 0.00 0.05 0.00 44 1010.9
20220515205824 86 104 3.0 8.0 0.00 0.05 0.00 40 1010.9
20220515205723 86 348 2.0 8.0 0.00 0.05 0.00 41 1011.0
20220515205614 86 350 2.0 8.0 0.00 0.05 0.00 41 1011.1
20220515205513 86 327 2.0 8.0 0.00 0.05 0.00 41 1011.1
20220515205414 86 331 2.0 8.0 0.00 0.05 0.00 42 1011.1
20220515205312 86 256 2.0 8.0 0.00 0.05 0.00 42 1011.2
20220515205212 87 291 1.0 8.0 0.00 0.05 0.00 45 1011.2
20220515205111 87 178 1.0 7.0 0.00 0.05 0.00 42 1011.2
20220515205048 87 192 1.0 7.0 0.00 0.05 0.00 42 1011.2
20220515205012 87 164 1.0 7.0 0.00 0.05 0.00 41 1011.2
20220515204910 87 157 1.0 7.0 0.00 0.05 0.00 41 1011.2
20220515204808 87 204 1.0 6.0 0.00 0.05 0.00 44 1011.3
20220515204710 87 168 1.0 6.0 0.00 0.05 0.00 43 1011.2
20220515204609 87 168 1.0 6.0 0.00 0.05 0.00 44 1011.2
20220515204504 86 168 1.0 6.0 0.00 0.05 0.00 43 1011.2
20220515204402 86 169 1.0 6.0 0.00 0.05 0.00 43 1011.2
20220515204305 86 167 1.0 6.0 0.00 0.05 0.00 42 1011.2
20220515204200 86 178 1.0 6.0 0.00 0.05 0.00 41 1011.2
20220515204053 87 119 1.0 6.0 0.00 0.05 0.00 42 1011.2
20220515204046 87 119 1.0 6.0 0.00 0.05 0.00 42 1011.3
20220515203954 87 118 1.0 6.0 0.00 0.05 0.00 43 1011.3
20220515203849 87 146 1.0 6.0 0.00 0.05 0.00 41 1011.3
20220515203751 87 210 2.0 6.0 0.00 0.05 0.00 44 1011.2
20220515203655 87 210 2.0 6.0 0.00 0.05 0.00 44 1011.3
20220515203545 87 219 2.0 7.0 0.00 0.05 0.00 46 1011.3
20220515203449 87 219 2.0 7.0 0.00 0.05 0.00 46 1011.3
20220515203346 86 219 3.0 7.0 0.00 0.05 0.00 45 1011.3
20220515203246 86 126 3.0 7.0 0.00 0.05 0.00 42 1011.3
20220515203145 86 171 2.0 7.0 0.00 0.05 0.00 42 1011.4
20220515203040 86 148 2.0 7.0 0.00 0.05 0.00 43 1011.4
20220515202937 86 169 2.0 7.0 0.00 0.05 0.00 42 1011.4
20220515202839 86 149 2.0 7.0 0.00 0.05 0.00 44 1011.4
20220515202740 86 174 2.0 7.0 0.00 0.05 0.00 44 1011.4
20220515202639 86 166 2.0 7.0 0.00 0.05 0.00 42 1011.3
20220515202535 86 172 2.0 7.0 0.00 0.05 0.00 45 1011.4
20220515202431 86 147 2.0 7.0 0.00 0.05 0.00 43 1011.4
20220515202335 86 164 2.0 7.0 0.00 0.05 0.00 43 1011.4
20220515202230 86 140 2.0 6.0 0.00 0.05 0.00 46 1011.4
20220515202127 86 102 2.0 6.0 0.00 0.05 0.00 44 1011.5
20220515202046 86 102 2.0 6.0 0.00 0.05 0.00 44 1011.5
20220515202025 86 102 2.0 6.0 0.00 0.05 0.00 46 1011.5
20220515201923 86 102 2.0 6.0 0.00 0.05 0.00 45 1011.5
20220515201823 85 104 1.0 6.0 0.00 0.05 0.00 46 1011.6
20220515201723 86 22 1.0 6.0 0.00 0.05 0.00 47 1011.6
20220515201623 86 154 1.0 3.0 0.00 0.05 0.00 44 1011.6
20220515201522 86 152 1.0 3.0 0.00 0.05 0.00 43 1011.7
20220515201417 86 152 1.0 3.0 0.00 0.05 0.00 43 1011.7
20220515201314 85 125 1.0 5.0 0.00 0.05 0.00 43 1011.8
20220515201216 85 239 1.0 5.0 0.00 0.05 0.00 44 1011.8
20220515201118 85 245 1.0 5.0 0.00 0.05 0.00 51 1011.8
20220515201047 85 237 1.0 5.0 0.00 0.05 0.00 51 1011.8
20220515201011 85 354 1.0 5.0 0.00 0.05 0.00 54 1011.8
20220515200911 85 354 1.0 5.0 0.00 0.05 0.00 47 1011.8
20220515200814 85 354 1.0 5.0 0.00 0.05 0.00 45 1011.8
20220515200709 86 354 2.0 6.0 0.00 0.05 0.00 44 1011.8
20220515200610 86 354 2.0 6.0 0.00 0.05 0.00 41 1011.9
20220515200503 87 356 2.0 6.0 0.00 0.05 0.00 44 1011.8
20220515200402 87 348 1.0 6.0 0.00 0.05 0.00 42 1011.8
20220515200302 87 343 1.0 6.0 0.00 0.05 0.00 43 1011.9
20220515200202 86 326 1.0 6.0 0.00 0.05 0.00 45 1011.9
20220515200047 86 273 2.0 6.0 0.00 0.05 0.00 47 1011.9
20220515195954 86 165 2.0 6.0 0.00 0.05 0.00 44 1011.9
20220515195856 86 165 2.0 6.0 0.00 0.05 0.00 43 1011.9
20220515195757 86 161 2.0 6.0 0.00 0.05 0.00 42 1011.9
20220515195657 86 162 2.0 6.0 0.00 0.05 0.00 42 1011.9
20220515195556 86 90 2.0 6.0 0.00 0.05 0.00 44 1011.9
20220515195454 86 91 2.0 6.0 0.00 0.05 0.00 42 1011.9
20220515195349 86 148 2.0 6.0 0.00 0.05 0.00 43 1012.0
20220515195251 86 148 2.0 6.0 0.00 0.05 0.00 43 1012.0
20220515195149 86 123 2.0 6.0 0.00 0.05 0.00 44 1012.0
20220515195048 86 138 2.0 6.0 0.00 0.05 0.00 42 1012.0
20220515194945 87 169 2.0 5.0 0.00 0.05 0.00 41 1012.0
20220515194843 87 182 2.0 4.0 0.00 0.05 0.00 41 1012.0
20220515194743 87 131 2.0 5.0 0.00 0.05 0.00 43 1012.0
20220515194642 87 130 2.0 5.0 0.00 0.05 0.00 41 1012.0
20220515194542 87 157 2.0 5.0 0.00 0.05 0.00 41 1012.0
20220515194443 87 156 2.0 5.0 0.00 0.05 0.00 43 1012.1
20220515194341 87 181 2.0 5.0 0.00 0.05 0.00 44 1012.0
20220515194239 86 179 2.0 5.0 0.00 0.05 0.00 43 1012.1
20220515194140 86 86 2.0 5.0 0.00 0.05 0.00 43 1012.1
20220515194046 86 231 1.0 5.0 0.00 0.05 0.00 44 1012.1
20220515194035 86 229 1.0 5.0 0.00 0.05 0.00 44 1012.1
20220515193931 86 102 1.0 5.0 0.00 0.05 0.00 42 1012.1
20220515193829 86 264 1.0 5.0 0.00 0.05 0.00 41 1012.2
20220515193731 86 132 1.0 3.0 0.00 0.05 0.00 41 1012.2
20220515193634 86 306 1.0 4.0 0.00 0.05 0.00 42 1012.2
20220515193531 86 309 1.0 4.0 0.00 0.05 0.00 42 1012.2
20220515193430 86 345 1.0 4.0 0.00 0.05 0.00 46 1012.2
20220515193330 85 292 1.0 4.0 0.00 0.05 0.00 46 1012.2
20220515193229 85 348 1.0 4.0 0.00 0.05 0.00 45 1012.2
20220515193126 85 11 1.0 4.0 0.00 0.05 0.00 43 1012.2
20220515193045 85 129 1.0 4.0 0.00 0.05 0.00 43 1012.2
20220515193022 85 129 1.0 4.0 0.00 0.05 0.00 43 1012.2
20220515192924 85 127 1.0 4.0 0.00 0.05 0.00 41 1012.2
20220515192821 85 127 0.0 4.0 0.00 0.05 0.00 41 1012.2
20220515192718 85 176 0.0 4.0 0.00 0.05 0.00 41 1012.2
20220515192617 85 228 0.0 1.0 0.00 0.05 0.00 45 1012.2
20220515192514 85 228 0.0 1.0 0.00 0.05 0.00 45 1012.2
20220515192407 85 228 0.0 1.0 0.00 0.05 0.00 48 1012.2
20220515192307 84 228 0.0 3.0 0.00 0.05 0.00 45 1012.2
20220515192209 85 228 1.0 3.0 0.00 0.05 0.00 44 1012.3
20220515192108 85 228 1.0 3.0 0.00 0.05 0.00 46 1012.2
20220515192046 85 228 1.0 3.0 0.00 0.05 0.00 42 1012.3
20220515192006 85 227 1.0 3.0 0.00 0.05 0.00 45 1012.3
20220515191909 85 227 1.0 4.0 0.00 0.05 0.00 53 1012.3
20220515191805 85 227 1.0 4.0 0.00 0.05 0.00 41 1012.3
20220515191706 86 227 1.0 4.0 0.00 0.05 0.00 44 1012.3